GREAT EAST LAKE DAM: From 06/20/2019 00:00 to 08/21/2019 00:00

Date LAKE ELEVATION [FT] PRECIPITATION INCREMENT [IN] PRECIPITATION TOTAL [IN] AIR TEMPERATURE [F] RELATIVE HUMIDITY [%]
08/19/2019 18:00 573.90 0.00 -- 76.3 91.0
08/19/2019 17:00 573.91 0.00 -- 76.5 92.0
08/19/2019 16:00 573.91 0.00 -- 75.9 96.0
08/19/2019 15:00 573.92 0.00 -- 74.0 96.0
08/19/2019 14:00 573.93 0.00 -- 74.2 99.0
08/19/2019 13:00 573.92 0.01 -- 75.8 100.0
08/19/2019 12:00 573.89 0.02 -- 76.6 100.0
08/19/2019 11:00 573.93 0.00 -- 81.2 99.0
08/19/2019 10:00 573.91 0.00 -- 85.7 99.0
08/19/2019 09:00 573.92 0.00 -- 84.1 96.0
08/19/2019 08:00 573.92 0.00 -- 82.0 94.0
08/19/2019 07:00 573.90 0.00 -- 78.4 99.0
08/19/2019 06:00 573.92 0.00 -- 76.2 96.0
08/19/2019 05:00 573.92 0.00 -- 72.0 99.0
08/19/2019 04:00 573.90 0.00 -- 69.1 99.0
08/19/2019 03:00 573.91 0.00 -- 68.1 100.0
08/19/2019 02:00 573.89 0.00 -- 67.9 99.0
08/19/2019 01:00 573.90 0.00 -- 68.6 100.0
08/19/2019 00:00 573.89 0.00 -- 68.3 100.0
08/18/2019 23:00 573.91 0.00 -- 68.3 100.0
08/18/2019 22:00 573.91 0.00 -- 68.3 100.0
08/18/2019 21:00 573.92 0.06 -- 67.8 100.0
08/18/2019 20:00 573.91 0.46 -- 67.8 100.0
08/18/2019 19:00 573.87 0.02 -- 68.0 100.0
08/18/2019 18:00 573.83 0.00 -- 68.4 100.0
08/18/2019 17:00 573.86 0.00 -- 69.1 100.0
08/18/2019 16:00 573.87 0.00 -- 70.2 100.0
08/18/2019 15:00 573.86 0.00 -- 72.5 100.0
08/18/2019 14:00 573.86 0.00 -- 75.8 100.0
08/18/2019 13:00 573.86 0.00 -- 78.0 100.0
08/18/2019 12:00 573.87 0.00 -- 80.8 100.0
08/18/2019 11:00 573.88 0.00 -- 81.1 100.0
08/18/2019 10:00 573.87 0.00 -- 79.9 100.0
08/18/2019 09:00 573.87 0.00 -- 79.2 100.0
08/18/2019 08:00 573.87 0.00 -- 77.0 100.0
08/18/2019 07:00 573.86 0.00 -- 73.6 100.0
08/18/2019 06:00 573.87 0.00 -- 70.9 100.0
08/18/2019 05:00 573.87 0.00 -- 69.0 100.0
08/18/2019 04:00 573.87 0.00 -- 66.6 100.0
08/18/2019 03:00 573.86 0.00 -- 65.3 100.0
08/18/2019 02:00 573.87 0.00 -- 63.9 100.0
08/18/2019 01:00 573.87 0.00 -- 64.0 100.0
08/18/2019 00:00 573.85 0.00 0.54 65.0 100.0
08/17/2019 23:00 573.84 0.00 -- 65.2 100.0
08/17/2019 22:00 573.86 0.00 -- 65.6 100.0
08/17/2019 21:00 573.87 0.00 -- 66.0 100.0
08/17/2019 20:00 573.88 0.00 -- 65.7 100.0
08/17/2019 19:00 573.84 0.06 -- 65.5 100.0
08/17/2019 18:00 573.92 0.09 -- 65.8 100.0
08/17/2019 17:00 573.86 0.02 -- 66.5 100.0
08/17/2019 16:00 573.86 0.00 -- 67.1 100.0
08/17/2019 15:00 573.86 0.00 -- 68.0 100.0
08/17/2019 14:00 573.86 0.00 -- 68.8 100.0
08/17/2019 13:00 573.86 0.00 -- 69.3 100.0
08/17/2019 12:00 573.85 0.00 -- 69.2 100.0
08/17/2019 11:00 573.86 0.00 -- 69.1 100.0
08/17/2019 10:00 573.87 0.00 -- 68.5 100.0
08/17/2019 09:00 573.86 0.00 -- 68.6 100.0
08/17/2019 08:00 573.86 0.00 -- 67.3 100.0
08/17/2019 07:00 573.87 0.00 -- 67.8 100.0
08/17/2019 06:00 573.87 0.00 -- 66.6 100.0
08/17/2019 05:00 573.86 0.00 -- 66.0 100.0
08/17/2019 04:00 573.86 0.00 -- 65.2 100.0
08/17/2019 03:00 573.86 0.00 -- 64.5 100.0
08/17/2019 02:00 573.87 0.01 -- 63.6 100.0
08/17/2019 01:00 573.88 0.00 -- 64.4 100.0
08/17/2019 00:00 573.88 0.00 0.18 64.4 100.0
08/16/2019 23:00 573.87 0.00 -- 64.5 100.0
08/16/2019 22:00 573.85 0.00 -- 64.5 100.0
08/16/2019 21:00 573.85 0.00 -- 64.6 100.0
08/16/2019 20:00 573.87 0.00 -- 65.1 100.0
08/16/2019 19:00 573.86 0.00 -- 64.6 100.0
08/16/2019 18:00 573.87 0.00 -- 64.3 100.0
08/16/2019 17:00 573.86 0.00 -- 64.9 100.0
08/16/2019 16:00 573.85 0.00 -- 65.9 100.0
08/16/2019 15:00 573.88 0.00 -- 68.4 100.0
08/16/2019 14:00 573.88 0.00 -- 70.6 100.0
08/16/2019 13:00 573.87 0.00 -- 72.9 100.0
08/16/2019 12:00 573.87 0.00 -- 75.1 100.0
08/16/2019 11:00 573.87 0.00 -- 74.5 100.0
08/16/2019 10:00 573.86 0.00 -- 76.9 100.0
08/16/2019 09:00 573.88 0.00 -- 74.0 100.0
08/16/2019 08:00 573.87 0.00 -- 71.0 100.0
08/16/2019 07:00 573.89 0.00 -- 69.2 100.0
08/16/2019 06:00 573.87 0.00 -- 67.0 100.0
08/16/2019 05:00 573.87 0.00 -- 65.4 100.0
08/16/2019 04:00 573.87 0.00 -- 64.3 100.0
08/16/2019 03:00 573.88 0.00 -- 62.9 100.0
08/16/2019 02:00 573.87 0.03 -- 63.0 100.0
08/16/2019 01:00 573.86 0.00 -- 63.1 100.0
08/16/2019 00:00 573.86 0.00 0.03 63.3 100.0
08/15/2019 23:00 573.87 0.00 -- 63.3 100.0
08/15/2019 22:00 573.86 0.00 -- 63.1 100.0
08/15/2019 21:00 573.87 0.00 -- 63.2 100.0
08/15/2019 20:00 573.86 0.00 -- 64.4 100.0
08/15/2019 19:00 573.86 0.00 -- 64.7 100.0
08/15/2019 18:00 573.86 0.00 -- 64.3 100.0
08/15/2019 17:00 573.87 0.00 -- 64.9 100.0
08/15/2019 16:00 573.87 0.00 -- 67.0 100.0
08/15/2019 15:00 573.88 0.00 -- 69.1 100.0
08/15/2019 14:00 573.86 0.00 -- 70.8 100.0
08/15/2019 13:00 573.87 0.00 -- 74.9 100.0
08/15/2019 12:00 573.86 0.00 -- 77.0 100.0
08/15/2019 11:00 573.87 0.00 -- 76.9 100.0
08/15/2019 10:00 573.88 0.00 -- 75.3 100.0
08/15/2019 09:00 573.86 0.00 -- 74.9 100.0
08/15/2019 08:00 573.88 0.00 -- 73.3 100.0
08/15/2019 07:00 573.89 0.00 -- 71.0 100.0
08/15/2019 06:00 573.88 0.00 -- 69.2 100.0
08/15/2019 05:00 573.88 0.00 -- 66.3 100.0
08/15/2019 04:00 573.87 0.00 -- 64.4 100.0
08/15/2019 03:00 573.88 0.00 -- 62.3 100.0
08/15/2019 02:00 573.88 0.00 -- 59.3 100.0
08/15/2019 01:00 573.87 0.00 -- 58.9 100.0
08/15/2019 00:00 573.88 0.00 0.00 59.5 100.0
08/14/2019 23:00 573.87 0.00 -- 58.8 100.0
08/14/2019 22:00 573.88 0.00 -- 59.6 100.0
08/14/2019 21:00 573.88 0.00 -- 60.8 100.0
08/14/2019 20:00 573.88 0.00 -- 61.6 100.0
08/14/2019 19:00 573.87 0.00 -- 62.9 100.0
08/14/2019 18:00 573.88 0.00 -- 64.5 100.0
08/14/2019 17:00 573.88 0.00 -- 66.2 100.0
08/14/2019 16:00 573.88 0.00 -- 67.6 100.0
08/14/2019 15:00 573.88 0.00 -- 69.7 100.0
08/14/2019 14:00 573.88 0.00 -- 73.0 100.0
08/14/2019 13:00 573.89 0.00 -- 75.1 100.0
08/14/2019 12:00 573.88 0.00 -- 78.8 100.0
08/14/2019 11:00 573.89 0.00 -- 77.9 100.0
08/14/2019 10:00 573.89 0.00 -- 77.4 100.0
08/14/2019 09:00 573.89 0.00 -- 75.5 100.0
08/14/2019 08:00 573.89 0.00 -- 74.2 100.0
08/14/2019 07:00 573.88 0.00 -- 73.0 100.0
08/14/2019 06:00 573.89 0.00 -- 71.0 100.0
08/14/2019 05:00 573.89 0.00 -- 68.2 100.0
08/14/2019 04:00 573.88 0.00 -- 65.6 100.0
08/14/2019 03:00 573.89 0.00 -- 62.4 100.0
08/14/2019 02:00 573.89 0.00 -- 60.6 100.0
08/14/2019 01:00 573.89 0.00 -- 61.1 100.0
08/14/2019 00:00 573.89 0.00 0.00 61.7 100.0
08/13/2019 23:00 573.89 0.00 -- 63.1 100.0
08/13/2019 22:00 573.90 0.00 -- 64.3 100.0
08/13/2019 21:00 573.87 0.00 -- 65.2 100.0
08/13/2019 20:00 573.89 0.00 -- 66.1 100.0
08/13/2019 19:00 573.89 0.00 -- 67.3 100.0
08/13/2019 18:00 573.88 0.00 -- 68.4 100.0
08/13/2019 17:00 573.89 0.00 -- 69.0 100.0
08/13/2019 16:00 573.88 0.00 -- 70.6 100.0
08/13/2019 15:00 573.88 0.00 -- 71.4 100.0
08/13/2019 14:00 573.88 0.00 -- 72.5 100.0
08/13/2019 13:00 573.88 0.01 -- 72.9 100.0
08/13/2019 12:00 573.89 0.00 -- 73.7 100.0
08/13/2019 11:00 573.90 0.02 -- 71.9 100.0
08/13/2019 10:00 573.89 0.00 -- 75.3 100.0
08/13/2019 09:00 573.90 0.00 -- 76.0 100.0
08/13/2019 08:00 573.88 0.00 -- 74.0 100.0
08/13/2019 07:00 573.90 0.00 -- 74.7 100.0
08/13/2019 06:00 573.90 0.00 -- 72.6 100.0
08/13/2019 05:00 573.92 0.01 -- 68.5 100.0
08/13/2019 04:00 573.89 0.00 -- 67.1 100.0
08/13/2019 03:00 573.91 0.00 -- 67.0 100.0
08/13/2019 02:00 573.89 0.00 -- 67.1 100.0
08/13/2019 01:00 573.90 0.00 -- 66.2 100.0
08/13/2019 00:00 573.90 0.00 0.04 65.8 100.0
08/12/2019 23:00 573.90 0.00 -- 67.3 100.0
08/12/2019 22:00 573.90 0.00 -- 69.6 100.0
08/12/2019 21:00 573.89 0.00 -- 70.4 100.0
08/12/2019 20:00 573.90 0.00 -- 69.0 100.0
08/12/2019 19:00 573.89 0.00 -- 69.0 100.0
08/12/2019 18:00 573.88 0.00 -- 70.0 100.0
08/12/2019 17:00 573.89 0.00 -- 70.2 100.0
08/12/2019 16:00 573.89 0.00 -- 69.7 100.0
08/12/2019 15:00 573.89 0.00 -- 72.7 100.0
08/12/2019 14:00 573.90 0.00 -- 76.3 100.0
08/12/2019 13:00 573.89 0.00 -- 78.5 100.0
08/12/2019 12:00 573.89 0.00 -- 79.5 100.0
08/12/2019 11:00 573.89 0.00 -- 80.5 100.0
08/12/2019 10:00 573.93 0.00 -- 79.7 100.0
08/12/2019 09:00 573.91 0.00 -- 78.4 100.0
08/12/2019 08:00 573.91 0.00 -- 77.1 100.0
08/12/2019 07:00 573.91 0.00 -- 75.7 100.0
08/12/2019 06:00 573.90 0.00 -- 73.5 100.0
08/12/2019 05:00 573.91 0.00 -- 70.5 100.0
08/12/2019 04:00 573.90 0.00 -- 68.6 100.0
08/12/2019 03:00 573.91 0.00 -- 62.3 100.0
08/12/2019 02:00 573.90 0.00 -- 61.3 100.0
08/12/2019 01:00 573.91 0.00 -- 60.9 100.0
08/12/2019 00:00 573.90 0.00 0.00 61.9 100.0
08/11/2019 23:00 573.90 0.00 -- 62.0 100.0
08/11/2019 22:00 573.92 0.00 -- 60.0 100.0
08/11/2019 21:00 573.92 0.00 -- 61.0 100.0
08/11/2019 20:00 573.90 0.00 -- 60.6 100.0
08/11/2019 19:00 573.91 0.00 -- 62.2 100.0
08/11/2019 18:00 573.90 0.00 -- 62.5 100.0
08/11/2019 17:00 573.89 0.00 -- 64.0 100.0
08/11/2019 16:00 573.89 0.00 -- 65.2 100.0
08/11/2019 15:00 573.91 0.00 -- 68.0 100.0
08/11/2019 14:00 573.92 0.00 -- 72.1 100.0
08/11/2019 13:00 573.91 0.00 -- 73.3 100.0
08/11/2019 12:00 573.89 0.00 -- 74.3 100.0
08/11/2019 11:00 573.87 0.00 -- 73.7 100.0
08/11/2019 10:00 573.92 0.00 -- 71.3 100.0
08/11/2019 09:00 573.95 0.00 -- 70.9 100.0
08/11/2019 08:00 573.90 0.00 -- 69.9 100.0
08/11/2019 07:00 573.90 0.00 -- 68.4 100.0
08/11/2019 06:00 573.95 0.00 -- 66.0 100.0
08/11/2019 05:00 573.92 0.00 -- 64.3 100.0
08/11/2019 04:00 573.94 0.00 -- 62.5 100.0
08/11/2019 03:00 573.91 0.00 -- 60.6 100.0
08/11/2019 02:00 573.92 0.00 -- 57.4 100.0
08/11/2019 01:00 573.93 0.00 -- 57.7 100.0
08/11/2019 00:00 573.90 0.00 0.00 58.4 100.0
08/10/2019 23:00 573.92 0.00 -- 55.9 100.0
08/10/2019 22:00 573.93 0.00 -- 58.9 100.0
08/10/2019 21:00 573.93 0.00 -- 58.7 100.0
08/10/2019 20:00 573.94 0.00 -- 58.4 100.0
08/10/2019 19:00 573.93 0.00 -- 59.7 100.0
08/10/2019 18:00 573.94 0.00 -- 60.4 100.0
08/10/2019 17:00 573.94 0.00 -- 61.3 100.0
08/10/2019 16:00 573.93 0.00 -- 61.9 100.0
08/10/2019 15:00 573.91 0.00 -- 63.8 100.0
08/10/2019 14:00 573.95 0.00 -- 68.6 100.0
08/10/2019 13:00 573.95 0.00 -- 69.9 100.0
08/10/2019 12:00 573.98 0.00 -- 71.1 100.0
08/10/2019 11:00 573.93 0.00 -- 71.2 100.0
08/10/2019 10:00 573.96 0.00 -- 69.9 100.0
08/10/2019 09:00 573.96 0.00 -- 68.5 100.0
08/10/2019 08:00 573.93 0.00 -- 70.1 100.0
08/10/2019 07:00 573.95 0.00 -- 69.5 100.0
08/10/2019 06:00 573.96 0.00 -- 67.7 100.0
08/10/2019 05:00 573.96 0.00 -- 66.1 100.0
08/10/2019 04:00 573.96 0.00 -- 64.1 60.0
08/10/2019 03:00 573.97 0.00 -- 60.4 47.0
08/10/2019 02:00 573.96 0.00 -- 57.0 44.0
08/10/2019 01:00 573.95 0.00 -- 56.0 60.0
08/10/2019 00:00 573.96 0.00 0.00 56.5 79.0
08/09/2019 23:00 573.95 0.00 -- 56.5 90.0
08/09/2019 22:00 573.96 0.00 -- 57.6 97.0
08/09/2019 21:00 573.95 0.00 -- 58.0 100.0
08/09/2019 20:00 573.95 0.00 -- 58.7 100.0
08/09/2019 19:00 573.97 0.00 -- 61.1 100.0
08/09/2019 18:00 573.95 0.00 -- 61.3 100.0
08/09/2019 17:00 573.95 0.01 -- 61.0 100.0
08/09/2019 16:00 573.98 0.00 -- 61.5 100.0
08/09/2019 15:00 573.96 0.02 -- 63.9 100.0
08/09/2019 14:00 573.95 0.00 -- 72.2 100.0
08/09/2019 13:00 573.96 0.00 -- 73.6 100.0
08/09/2019 12:00 573.96 0.00 -- 78.6 100.0
08/09/2019 11:00 573.98 0.00 -- 78.9 100.0
08/09/2019 10:00 573.98 0.00 -- 77.8 100.0
08/09/2019 09:00 573.98 0.00 -- 76.3 100.0
08/09/2019 08:00 573.98 0.00 -- 75.0 100.0
08/09/2019 07:00 573.99 0.00 -- 73.9 100.0
08/09/2019 06:00 573.97 0.00 -- 72.1 100.0
08/09/2019 05:00 573.97 0.00 -- 70.5 100.0
08/09/2019 04:00 573.96 0.00 -- 69.2 90.0
08/09/2019 03:00 573.97 0.00 -- 66.9 73.0
08/09/2019 02:00 573.96 0.00 -- 66.1 72.0
08/09/2019 01:00 573.98 0.00 -- 64.2 73.0
08/09/2019 00:00 573.96 0.00 0.03 64.5 77.0
08/08/2019 23:00 573.98 0.00 -- 65.6 82.0
08/08/2019 22:00 573.98 0.00 -- 68.5 74.0
08/08/2019 21:00 573.98 0.00 -- 66.2 71.0
08/08/2019 20:00 573.97 0.00 -- 66.4 71.0
08/08/2019 19:00 573.96 0.00 -- 68.2 72.0
08/08/2019 18:00 573.98 0.00 -- 68.2 72.0
08/08/2019 17:00 573.98 0.00 -- 68.9 67.0
08/08/2019 16:00 573.99 0.00 -- 70.8 69.0
08/08/2019 15:00 573.97 0.00 -- 73.5 67.0
08/08/2019 14:00 573.98 0.00 -- 74.8 66.0
08/08/2019 13:00 573.97 0.00 -- 75.8 66.0
08/08/2019 12:00 573.98 0.00 -- 79.4 71.0
08/08/2019 11:00 573.95 0.26 -- 76.0 70.0
08/08/2019 10:00 573.97 0.00 -- 76.9 78.0
08/08/2019 09:00 573.98 0.00 -- 75.8 75.0
08/08/2019 08:00 573.96 0.00 -- 74.4 79.0
08/08/2019 07:00 573.97 0.00 -- 74.0 79.0
08/08/2019 06:00 573.96 0.00 -- 72.3 78.0
08/08/2019 05:00 573.96 0.00 -- 69.6 80.0
08/08/2019 04:00 573.97 0.00 -- 68.2 79.0
08/08/2019 03:00 573.96 0.01 -- 67.4 82.0
08/08/2019 02:00 573.96 0.00 -- 66.5 84.0
08/08/2019 01:00 573.96 0.00 -- 66.5 87.0
08/08/2019 00:00 573.95 0.00 0.27 66.7 90.0
08/07/2019 23:00 573.95 0.02 -- 66.7 92.0
08/07/2019 22:00 573.95 0.09 -- 66.9 97.0
08/07/2019 21:00 573.95 0.02 -- 67.2 100.0
08/07/2019 20:00 573.96 0.03 -- 67.5 100.0
08/07/2019 19:00 573.95 0.06 -- 68.4 100.0
08/07/2019 18:00 573.94 0.01 -- 68.8 100.0
08/07/2019 17:00 573.93 0.00 -- 68.1 100.0
08/07/2019 16:00 573.93 0.00 -- 68.5 100.0
08/07/2019 15:00 573.96 0.02 -- 68.9 100.0
08/07/2019 14:00 573.94 0.02 -- 68.4 100.0
08/07/2019 13:00 573.96 0.19 -- 68.7 100.0
08/07/2019 12:00 573.93 0.00 -- 78.2 100.0
08/07/2019 11:00 573.94 0.00 -- 79.8 100.0
08/07/2019 10:00 573.93 0.00 -- 79.2 100.0
08/07/2019 09:00 573.93 0.00 -- 78.8 100.0
08/07/2019 08:00 573.93 0.00 -- 76.1 100.0
08/07/2019 07:00 573.94 0.00 -- 74.4 100.0
08/07/2019 06:00 573.94 0.00 -- 71.9 100.0
08/07/2019 05:00 573.95 0.00 -- 71.0 100.0
08/07/2019 04:00 573.95 0.00 -- 69.2 100.0
08/07/2019 03:00 573.94 0.00 -- 67.5 100.0
08/07/2019 02:00 573.92 0.00 -- 66.3 100.0
08/07/2019 01:00 573.93 0.00 -- 66.2 100.0
08/07/2019 00:00 573.93 0.00 0.46 66.7 100.0
08/06/2019 23:00 573.95 0.00 -- 66.6 100.0
08/06/2019 22:00 573.95 0.00 -- 67.1 100.0
08/06/2019 21:00 573.94 0.00 -- 67.7 100.0
08/06/2019 20:00 573.95 0.00 -- 67.7 100.0
08/06/2019 19:00 573.92 0.00 -- 67.9 100.0
08/06/2019 18:00 573.94 0.00 -- 68.3 100.0
08/06/2019 17:00 573.94 0.00 -- 68.0 100.0
08/06/2019 16:00 573.92 0.00 -- 69.1 100.0
08/06/2019 15:00 573.94 0.00 -- 72.0 100.0
08/06/2019 14:00 573.94 0.00 -- 73.6 100.0
08/06/2019 13:00 573.93 0.00 -- 75.3 100.0
08/06/2019 12:00 573.93 0.00 -- 77.8 100.0
08/06/2019 11:00 573.96 0.00 -- 77.9 100.0
08/06/2019 10:00 573.96 0.00 -- 79.5 100.0
08/06/2019 09:00 573.94 0.00 -- 80.4 100.0
08/06/2019 08:00 573.97 0.00 -- 79.9 100.0
08/06/2019 07:00 573.94 0.00 -- 78.3 100.0
08/06/2019 06:00 573.95 0.00 -- 74.6 100.0
08/06/2019 05:00 573.95 0.00 -- 68.9 100.0
08/06/2019 04:00 573.95 0.00 -- 64.2 100.0
08/06/2019 03:00 573.95 0.00 -- 59.9 100.0
08/06/2019 02:00 573.95 0.00 -- 56.7 92.0
08/06/2019 01:00 573.95 0.00 -- 56.5 100.0
08/06/2019 00:00 573.95 0.00 0.00 56.9 100.0
08/05/2019 23:00 573.95 0.00 -- 57.6 100.0
08/05/2019 22:00 573.95 0.00 -- 59.9 100.0
08/05/2019 21:00 573.96 0.00 -- 60.3 100.0
08/05/2019 20:00 573.97 0.00 -- 62.4 100.0
08/05/2019 19:00 573.96 0.00 -- 63.6 100.0
08/05/2019 18:00 573.95 0.00 -- 65.1 100.0
08/05/2019 17:00 573.95 0.00 -- 64.5 100.0
08/05/2019 16:00 573.95 0.00 -- 65.6 100.0
08/05/2019 15:00 573.96 0.00 -- 69.5 100.0
08/05/2019 14:00 573.95 0.00 -- 74.9 100.0
08/05/2019 13:00 573.97 0.00 -- 76.9 100.0
08/05/2019 12:00 573.96 0.00 -- 77.8 100.0
08/05/2019 11:00 573.97 0.00 -- 76.7 100.0
08/05/2019 10:00 573.95 0.00 -- 76.2 100.0
08/05/2019 09:00 573.98 0.00 -- 73.8 100.0
08/05/2019 08:00 573.97 0.00 -- 72.4 100.0
08/05/2019 07:00 573.97 0.00 -- 70.6 100.0
08/05/2019 06:00 573.96 0.00 -- 68.6 100.0
08/05/2019 05:00 573.97 0.00 -- 66.2 100.0
08/05/2019 04:00 573.97 0.00 -- 63.4 100.0
08/05/2019 03:00 573.96 0.00 -- 59.5 100.0
08/05/2019 02:00 573.98 0.00 -- 54.2 100.0
08/05/2019 01:00 573.97 0.00 -- 51.7 100.0
08/05/2019 00:00 573.97 0.00 0.00 52.2 100.0
08/04/2019 23:00 573.98 0.00 -- 53.9 100.0
08/04/2019 22:00 573.96 0.00 -- 54.3 100.0
08/04/2019 21:00 573.97 0.00 -- 56.0 100.0
08/04/2019 20:00 573.97 0.00 -- 59.3 100.0
08/04/2019 19:00 573.96 0.00 -- 61.9 100.0
08/04/2019 18:00 573.97 0.00 -- 63.4 100.0
08/04/2019 17:00 573.97 0.00 -- 65.1 100.0
08/04/2019 16:00 573.98 0.00 -- 67.4 100.0
08/04/2019 15:00 573.97 0.00 -- 73.6 100.0
08/04/2019 14:00 573.97 0.00 -- 75.5 100.0
08/04/2019 13:00 574.00 0.00 -- 76.5 100.0
08/04/2019 12:00 574.00 0.00 -- 78.2 100.0
08/04/2019 11:00 573.97 0.00 -- 78.6 100.0
08/04/2019 10:00 573.98 0.00 -- 78.6 100.0
08/04/2019 09:00 573.98 0.00 -- 78.1 100.0
08/04/2019 08:00 574.00 0.00 -- 76.5 100.0
08/04/2019 07:00 573.99 0.00 -- 74.4 100.0
08/04/2019 06:00 573.99 0.00 -- 72.1 100.0
08/04/2019 05:00 573.98 0.00 -- 70.1 100.0
08/04/2019 04:00 573.99 0.00 -- 69.0 100.0
08/04/2019 03:00 573.99 0.00 -- 65.5 100.0
08/04/2019 02:00 574.00 0.00 -- 64.8 100.0
08/04/2019 01:00 573.99 0.00 -- 65.0 100.0
08/04/2019 00:00 573.99 0.00 0.00 65.7 100.0
08/03/2019 23:00 573.99 0.00 -- 66.6 100.0
08/03/2019 22:00 573.99 0.00 -- 67.1 100.0
08/03/2019 21:00 573.99 0.00 -- 69.4 100.0
08/03/2019 20:00 573.98 0.00 -- 70.5 100.0
08/03/2019 19:00 573.98 0.00 -- 70.3 100.0
08/03/2019 18:00 574.00 0.00 -- 69.9 100.0
08/03/2019 17:00 574.00 0.00 -- 69.5 100.0
08/03/2019 16:00 573.98 0.00 -- 71.6 100.0
08/03/2019 15:00 573.99 0.00 -- 72.0 100.0
08/03/2019 14:00 573.98 0.00 -- 74.1 100.0
08/03/2019 13:00 573.99 0.00 -- 79.7 100.0
08/03/2019 12:00 573.98 0.00 -- 82.1 100.0
08/03/2019 11:00 574.01 0.00 -- 80.7 100.0
08/03/2019 10:00 573.99 0.00 -- 80.3 100.0
08/03/2019 09:00 574.01 0.00 -- 79.8 100.0
08/03/2019 08:00 574.00 0.00 -- 78.2 100.0
08/03/2019 07:00 574.01 0.00 -- 72.5 100.0
08/03/2019 06:00 574.00 0.00 -- 70.6 100.0
08/03/2019 05:00 574.01 0.00 -- 70.5 100.0
08/03/2019 04:00 574.01 0.00 -- 67.4 100.0
08/03/2019 03:00 574.00 0.00 -- 63.5 100.0
08/03/2019 02:00 574.01 0.00 -- 60.6 100.0
08/03/2019 01:00 574.01 0.00 -- 59.1 100.0
08/03/2019 00:00 574.00 0.00 0.00 59.7 100.0
08/02/2019 23:00 574.00 0.00 -- 60.4 100.0
08/02/2019 22:00 574.01 0.00 -- 62.9 100.0
08/02/2019 21:00 574.00 0.00 -- 64.6 100.0
08/02/2019 20:00 574.01 0.00 -- 67.3 100.0
08/02/2019 19:00 574.00 0.00 -- 67.1 100.0
08/02/2019 18:00 574.01 0.00 -- 68.1 100.0
08/02/2019 17:00 574.01 0.00 -- 66.8 100.0
08/02/2019 16:00 574.01 0.00 -- 67.3 100.0
08/02/2019 15:00 574.01 0.00 -- 71.3 100.0
08/02/2019 14:00 574.01 0.00 -- 75.3 100.0
08/02/2019 13:00 574.01 0.00 -- 80.0 100.0
08/02/2019 12:00 574.01 0.00 -- 80.8 100.0
08/02/2019 11:00 574.02 0.00 -- 80.5 100.0
08/02/2019 10:00 574.02 0.00 -- 80.2 100.0
08/02/2019 09:00 574.02 0.00 -- 78.7 100.0
08/02/2019 08:00 574.02 0.00 -- 78.2 100.0
08/02/2019 07:00 574.01 0.00 -- 76.4 100.0
08/02/2019 06:00 574.02 0.00 -- 73.9 100.0
08/02/2019 05:00 574.03 0.00 -- 70.1 100.0
08/02/2019 04:00 574.02 0.00 -- 66.6 100.0
08/02/2019 03:00 574.02 0.00 -- 63.9 100.0
08/02/2019 02:00 574.01 0.00 -- 62.5 100.0
08/02/2019 01:00 574.02 0.00 -- 62.1 100.0
08/02/2019 00:00 574.02 0.00 0.00 62.7 100.0
08/01/2019 23:00 574.02 0.00 -- 59.6 100.0
08/01/2019 22:00 574.02 0.00 -- 57.7 100.0
08/01/2019 21:00 574.03 0.00 -- 58.7 100.0
08/01/2019 20:00 574.02 0.00 -- 60.6 100.0
08/01/2019 19:00 574.03 0.00 -- 62.4 100.0
08/01/2019 18:00 574.03 0.00 -- 64.8 100.0
08/01/2019 17:00 574.03 0.00 -- 67.6 100.0
08/01/2019 16:00 574.02 0.00 -- 69.3 100.0
08/01/2019 15:00 574.03 0.00 -- 74.1 100.0
08/01/2019 14:00 574.03 0.00 -- 77.9 100.0
08/01/2019 13:00 574.03 0.00 -- 79.3 100.0
08/01/2019 12:00 574.03 0.00 -- 80.4 100.0
08/01/2019 11:00 574.03 0.00 -- 80.9 100.0
08/01/2019 10:00 574.04 0.00 -- 80.6 100.0
08/01/2019 09:00 574.04 0.00 -- 80.8 100.0
08/01/2019 08:00 574.04 0.00 -- 79.3 100.0
08/01/2019 07:00 574.04 0.00 -- 78.5 100.0
08/01/2019 06:00 574.04 0.00 -- 75.7 100.0
08/01/2019 05:00 574.04 0.00 -- 73.7 100.0
08/01/2019 04:00 574.06 0.00 -- 71.1 100.0
08/01/2019 03:00 574.04 0.00 -- 68.3 100.0
08/01/2019 02:00 574.04 0.00 -- 68.4 100.0
08/01/2019 01:00 574.04 0.00 -- 68.6 100.0
08/01/2019 00:00 574.04 0.00 0.00 67.4 100.0
07/31/2019 23:00 574.05 0.00 -- 67.3 100.0
07/31/2019 22:00 574.04 0.00 -- 68.3 100.0
07/31/2019 21:00 574.05 0.00 -- 69.1 100.0
07/31/2019 20:00 574.04 0.00 -- 68.1 100.0
07/31/2019 19:00 574.02 0.00 -- 69.2 100.0
07/31/2019 18:00 574.06 0.00 -- 71.3 100.0
07/31/2019 17:00 574.04 0.00 -- 73.3 100.0
07/31/2019 16:00 574.05 0.00 -- 76.0 100.0
07/31/2019 15:00 574.05 0.00 -- 76.2 100.0
07/31/2019 14:00 574.05 0.00 -- 76.8 100.0
07/31/2019 13:00 574.06 0.00 -- 78.8 100.0
07/31/2019 12:00 574.06 0.00 -- 80.7 100.0
07/31/2019 11:00 574.06 0.00 -- 82.1 100.0
07/31/2019 10:00 574.06 0.00 -- 81.8 100.0
07/31/2019 09:00 574.05 0.00 -- 81.7 100.0
07/31/2019 08:00 574.08 0.00 -- 80.7 100.0
07/31/2019 07:00 574.05 0.00 -- 79.1 100.0
07/31/2019 06:00 574.06 0.00 -- 79.1 100.0
07/31/2019 05:00 574.07 0.00 -- 78.4 100.0
07/31/2019 04:00 574.06 0.00 -- 75.6 100.0
07/31/2019 03:00 574.05 0.00 -- 73.0 100.0
07/31/2019 02:00 574.05 0.00 -- 67.7 100.0
07/31/2019 01:00 574.06 0.00 -- 66.8 100.0
07/31/2019 00:00 574.05 0.00 0.00 67.0 100.0
07/30/2019 23:00 574.04 0.00 -- 67.6 100.0
07/30/2019 22:00 574.03 0.00 -- 68.9 100.0
07/30/2019 21:00 574.05 0.00 -- 70.8 100.0
07/30/2019 20:00 574.06 0.00 -- 73.7 100.0
07/30/2019 19:00 574.07 0.00 -- 76.6 100.0
07/30/2019 18:00 574.08 0.00 -- 79.3 100.0
07/30/2019 17:00 574.06 0.00 -- 79.6 100.0
07/30/2019 16:00 574.07 0.00 -- 79.2 100.0
07/30/2019 15:00 574.05 0.00 -- 80.5 100.0
07/30/2019 14:00 574.05 0.00 -- 83.6 100.0
07/30/2019 13:00 574.07 0.00 -- 87.9 100.0
07/30/2019 12:00 574.06 0.00 -- 88.8 100.0
07/30/2019 11:00 574.08 0.00 -- 89.1 100.0
07/30/2019 10:00 574.06 0.00 -- 89.6 100.0
07/30/2019 09:00 574.07 0.00 -- 88.0 100.0
07/30/2019 08:00 574.07 0.00 -- 86.0 100.0
07/30/2019 07:00 574.07 0.00 -- 84.7 100.0
07/30/2019 06:00 574.07 0.00 -- 82.9 100.0
07/30/2019 05:00 574.08 0.00 -- 78.4 100.0
07/30/2019 04:00 574.07 0.00 -- 74.8 100.0
07/30/2019 03:00 574.07 0.00 -- 69.3 100.0
07/30/2019 02:00 574.08 0.00 -- 66.9 100.0
07/30/2019 01:00 574.07 0.00 -- 66.0 100.0
07/30/2019 00:00 574.07 0.00 0.00 66.6 100.0
07/29/2019 23:00 574.06 0.00 -- 66.8 100.0
07/29/2019 22:00 574.07 0.00 -- 67.5 100.0
07/29/2019 21:00 574.06 0.00 -- 67.7 100.0
07/29/2019 20:00 574.07 0.00 -- 68.7 100.0
07/29/2019 19:00 574.07 0.00 -- 69.0 100.0
07/29/2019 18:00 574.07 0.00 -- 69.8 100.0
07/29/2019 17:00 574.07 0.00 -- 70.9 100.0
07/29/2019 16:00 574.08 0.00 -- 73.6 100.0
07/29/2019 15:00 574.07 0.00 -- 76.5 100.0
07/29/2019 14:00 574.08 0.00 -- 79.7 100.0
07/29/2019 13:00 574.07 0.00 -- 84.9 100.0
07/29/2019 12:00 574.08 0.00 -- 86.7 100.0
07/29/2019 11:00 574.09 0.00 -- 85.8 100.0
07/29/2019 10:00 574.08 0.00 -- 85.3 100.0
07/29/2019 09:00 574.09 0.00 -- 84.3 100.0
07/29/2019 08:00 574.09 0.00 -- 83.3 100.0
07/29/2019 07:00 574.09 0.00 -- 81.1 100.0
07/29/2019 06:00 574.08 0.00 -- 79.1 100.0
07/29/2019 05:00 574.08 0.00 -- 76.9 100.0
07/29/2019 04:00 574.09 0.00 -- 74.8 100.0
07/29/2019 03:00 574.09 0.00 -- 72.5 100.0
07/29/2019 02:00 574.08 0.00 -- 68.9 100.0
07/29/2019 01:00 574.08 0.00 -- 69.2 100.0
07/29/2019 00:00 574.08 0.00 0.00 69.6 100.0
07/28/2019 23:00 574.08 0.00 -- 69.1 100.0
07/28/2019 22:00 574.08 0.00 -- 69.3 100.0
07/28/2019 21:00 574.09 0.00 -- 70.4 100.0
07/28/2019 20:00 574.07 0.00 -- 71.6 100.0
07/28/2019 19:00 574.08 0.00 -- 72.0 100.0
07/28/2019 18:00 574.09 0.00 -- 72.8 100.0
07/28/2019 17:00 574.09 0.00 -- 74.4 100.0
07/28/2019 16:00 574.08 0.00 -- 76.7 100.0
07/28/2019 15:00 574.09 0.00 -- 79.6 100.0
07/28/2019 14:00 574.08 0.00 -- 81.6 100.0
07/28/2019 13:00 574.09 0.00 -- 84.4 100.0
07/28/2019 12:00 574.08 0.00 -- 87.0 100.0
07/28/2019 11:00 574.09 0.00 -- 86.6 100.0
07/28/2019 10:00 574.10 0.00 -- 85.9 100.0
07/28/2019 09:00 574.09 0.00 -- 84.4 90.0
07/28/2019 08:00 574.10 0.00 -- 84.2 71.0
07/28/2019 07:00 574.10 0.00 -- 82.0 72.0
07/28/2019 06:00 574.10 0.00 -- 78.7 75.0
07/28/2019 05:00 574.10 0.00 -- 73.9 75.0
07/28/2019 04:00 574.10 0.00 -- 68.9 69.0
07/28/2019 03:00 574.10 0.00 -- 65.3 69.0
07/28/2019 02:00 574.10 0.00 -- 63.1 71.0
07/28/2019 01:00 574.11 0.00 -- 61.6 86.0
07/28/2019 00:00 574.09 0.00 0.00 61.7 91.0
07/27/2019 23:00 574.09 0.00 -- 62.3 100.0
07/27/2019 22:00 574.11 0.00 -- 62.4 100.0
07/27/2019 21:00 574.10 0.00 -- 62.8 100.0
07/27/2019 20:00 574.12 0.00 -- 62.5 100.0
07/27/2019 19:00 574.11 0.00 -- 63.5 100.0
07/27/2019 18:00 574.11 0.00 -- 65.5 100.0
07/27/2019 17:00 574.09 0.00 -- 67.2 100.0
07/27/2019 16:00 574.11 0.00 -- 68.7 100.0
07/27/2019 15:00 574.10 0.00 -- 71.3 100.0
07/27/2019 14:00 574.10 0.00 -- 74.7 100.0
07/27/2019 13:00 574.11 0.00 -- 77.4 100.0
07/27/2019 12:00 574.10 0.00 -- 79.6 100.0
07/27/2019 11:00 574.11 0.00 -- 79.2 100.0
07/27/2019 10:00 574.10 0.00 -- 78.5 100.0
07/27/2019 09:00 574.11 0.00 -- 80.9 100.0
07/27/2019 08:00 574.11 0.00 -- 81.2 100.0
07/27/2019 07:00 574.11 0.00 -- 80.1 100.0
07/27/2019 06:00 574.11 0.00 -- 76.0 100.0
07/27/2019 05:00 574.12 0.00 -- 71.9 100.0
07/27/2019 04:00 574.11 0.00 -- 67.5 100.0
07/27/2019 03:00 574.11 0.00 -- 63.9 100.0
07/27/2019 02:00 574.11 0.00 -- 62.4 100.0
07/27/2019 01:00 574.11 0.00 -- 61.5 100.0
07/27/2019 00:00 574.11 0.00 0.00 62.2 100.0
07/26/2019 23:00 574.11 0.00 -- 62.5 100.0
07/26/2019 22:00 574.11 0.00 -- 63.1 100.0
07/26/2019 21:00 574.11 0.00 -- 63.9 100.0
07/26/2019 20:00 574.12 0.00 -- 65.3 100.0
07/26/2019 19:00 574.11 0.00 -- 67.1 100.0
07/26/2019 18:00 574.12 0.00 -- 68.6 100.0
07/26/2019 17:00 574.11 0.00 -- 69.4 100.0
07/26/2019 16:00 574.11 0.00 -- 71.7 100.0
07/26/2019 15:00 574.11 0.00 -- 73.5 100.0
07/26/2019 14:00 574.11 0.00 -- 76.3 100.0
07/26/2019 13:00 574.12 0.00 -- 77.7 100.0
07/26/2019 12:00 574.11 0.00 -- 79.7 100.0
07/26/2019 11:00 574.12 0.00 -- 81.8 100.0
07/26/2019 10:00 574.13 0.00 -- 80.0 100.0
07/26/2019 09:00 574.12 0.00 -- 79.5 100.0
07/26/2019 08:00 574.12 0.00 -- 79.0 100.0
07/26/2019 07:00 574.12 0.00 -- 77.8 100.0
07/26/2019 06:00 574.13 0.00 -- 75.9 100.0
07/26/2019 05:00 574.13 0.00 -- 72.2 100.0
07/26/2019 04:00 574.13 0.00 -- 69.1 100.0
07/26/2019 03:00 574.12 0.00 -- 65.6 100.0
07/26/2019 02:00 574.12 0.00 -- 61.7 100.0
07/26/2019 01:00 574.13 0.00 -- 61.5 100.0
07/26/2019 00:00 574.14 0.00 0.00 61.8 100.0
07/25/2019 23:00 574.13 0.00 -- 62.0 100.0
07/25/2019 22:00 574.13 0.00 -- 61.1 100.0
07/25/2019 21:00 574.12 0.00 -- 60.5 100.0
07/25/2019 20:00 574.13 0.00 -- 61.8 100.0
07/25/2019 19:00 574.12 0.00 -- 64.1 100.0
07/25/2019 18:00 574.14 0.00 -- 64.8 100.0
07/25/2019 17:00 574.13 0.00 -- 65.5 100.0
07/25/2019 16:00 574.12 0.00 -- 67.8 100.0
07/25/2019 15:00 574.13 0.00 -- 70.1 100.0
07/25/2019 14:00 574.13 0.00 -- 72.7 100.0
07/25/2019 13:00 574.14 0.00 -- 76.2 100.0
07/25/2019 12:00 574.13 0.00 -- 78.7 100.0
07/25/2019 11:00 574.13 0.00 -- 77.8 100.0
07/25/2019 10:00 574.14 0.00 -- 74.5 100.0
07/25/2019 09:00 574.13 0.00 -- 75.2 100.0
07/25/2019 08:00 574.14 0.00 -- 73.8 100.0
07/25/2019 07:00 574.14 0.00 -- 72.8 100.0
07/25/2019 06:00 574.15 0.00 -- 70.7 100.0
07/25/2019 05:00 574.14 0.00 -- 68.0 100.0
07/25/2019 04:00 574.14 0.00 -- 64.6 84.0
07/25/2019 03:00 574.14 0.00 -- 59.1 71.0
07/25/2019 02:00 574.15 0.00 -- 58.6 89.0
07/25/2019 01:00 574.14 0.00 -- 58.8 100.0
07/25/2019 00:00 574.14 0.00 0.00 59.0 100.0
07/24/2019 23:00 574.13 0.00 -- 59.4 100.0
07/24/2019 22:00 574.15 0.00 -- 57.9 100.0
07/24/2019 21:00 574.13 0.00 -- 58.7 100.0
07/24/2019 20:00 574.14 0.00 -- 60.3 100.0
07/24/2019 19:00 574.14 0.00 -- 61.7 100.0
07/24/2019 18:00 574.14 0.00 -- 63.6 100.0
07/24/2019 17:00 574.15 0.00 -- 65.4 100.0
07/24/2019 16:00 574.14 0.00 -- 67.7 100.0
07/24/2019 15:00 574.14 0.00 -- 71.4 100.0
07/24/2019 14:00 574.15 0.00 -- 72.8 100.0
07/24/2019 13:00 574.15 0.00 -- 77.4 100.0
07/24/2019 12:00 574.15 0.00 -- 78.2 100.0
07/24/2019 11:00 574.15 0.00 -- 77.5 100.0
07/24/2019 10:00 574.15 0.00 -- 76.7 100.0
07/24/2019 09:00 574.15 0.00 -- 74.4 100.0
07/24/2019 08:00 574.15 0.00 -- 74.1 100.0
07/24/2019 07:00 574.14 0.00 -- 73.8 100.0
07/24/2019 06:00 574.15 0.00 -- 71.5 100.0
07/24/2019 05:00 574.15 0.00 -- 68.6 100.0
07/24/2019 04:00 574.15 0.00 -- 67.0 100.0
07/24/2019 03:00 574.16 0.00 -- 62.7 100.0
07/24/2019 02:00 574.15 0.00 -- 61.7 100.0
07/24/2019 01:00 574.16 0.00 -- 62.2 100.0
07/24/2019 00:00 574.16 0.00 0.00 62.7 100.0
07/23/2019 23:00 574.16 0.00 -- 62.9 100.0
07/23/2019 22:00 574.16 0.00 -- 62.1 100.0
07/23/2019 21:00 574.16 0.00 -- 61.8 100.0
07/23/2019 20:00 574.16 0.00 -- 61.7 100.0
07/23/2019 19:00 574.16 0.00 -- 60.4 100.0
07/23/2019 18:00 574.15 0.00 -- 60.4 100.0
07/23/2019 17:00 574.16 0.00 -- 60.9 100.0
07/23/2019 16:00 574.16 0.00 -- 62.2 100.0
07/23/2019 15:00 574.14 0.00 -- 65.1 100.0
07/23/2019 14:00 574.16 0.00 -- 66.3 100.0
07/23/2019 13:00 574.15 0.00 -- 67.5 100.0
07/23/2019 12:00 574.14 0.00 -- 69.1 100.0
07/23/2019 11:00 574.16 0.00 -- 65.9 100.0
07/23/2019 10:00 574.18 0.00 -- 63.7 100.0
07/23/2019 09:00 574.17 0.00 -- 62.3 100.0
07/23/2019 08:00 574.14 0.00 -- 61.1 100.0
07/23/2019 07:00 574.17 0.00 -- 60.3 100.0
07/23/2019 06:00 574.15 0.00 -- 59.4 100.0
07/23/2019 05:00 574.15 0.00 -- 58.9 100.0
07/23/2019 04:00 574.15 0.00 -- 60.2 100.0
07/23/2019 03:00 574.15 0.00 -- 60.6 100.0
07/23/2019 02:00 574.14 0.00 -- 60.2 100.0
07/23/2019 01:00 574.14 0.00 -- 59.8 100.0
07/23/2019 00:00 574.13 0.00 0.00 59.5 100.0
07/22/2019 23:00 574.13 0.00 -- 60.2 100.0
07/22/2019 22:00 574.13 0.00 -- 61.2 100.0
07/22/2019 21:00 574.15 0.00 -- 62.1 100.0
07/22/2019 20:00 574.14 0.00 -- 61.7 100.0
07/22/2019 19:00 574.13 0.00 -- 62.1 100.0
07/22/2019 18:00 574.12 0.00 -- 63.3 100.0
07/22/2019 17:00 574.10 0.00 -- 63.7 100.0
07/22/2019 16:00 574.11 0.00 -- 63.3 100.0
07/22/2019 15:00 574.08 0.00 -- 64.5 100.0
07/22/2019 14:00 574.11 0.00 -- 64.9 100.0
07/22/2019 13:00 574.11 0.00 -- 64.9 100.0
07/22/2019 12:00 574.13 0.00 -- 66.2 100.0
07/22/2019 11:00 574.08 0.00 -- 67.5 100.0
07/22/2019 10:00 574.07 0.00 -- 71.5 100.0
07/22/2019 09:00 574.07 0.00 -- 72.9 100.0
07/22/2019 08:00 574.07 0.00 -- 72.9 100.0
07/22/2019 07:00 574.06 0.00 -- 73.8 100.0
07/22/2019 06:00 574.07 0.00 -- 75.9 100.0
07/22/2019 05:00 574.06 0.00 -- 73.9 100.0
07/22/2019 04:00 574.06 0.00 -- 72.2 100.0
07/22/2019 03:00 574.06 0.00 -- 70.2 100.0
07/22/2019 02:00 574.08 0.00 -- 67.0 100.0
07/22/2019 01:00 574.07 0.00 -- 68.0 100.0
07/22/2019 00:00 574.07 0.00 0.00 68.1 100.0
07/21/2019 23:00 574.06 0.00 -- 69.1 100.0
07/21/2019 22:00 574.06 0.00 -- 69.3 100.0
07/21/2019 21:00 574.06 0.00 -- 71.2 100.0
07/21/2019 20:00 574.08 0.00 -- 73.6 100.0
07/21/2019 19:00 574.06 0.00 -- 75.6 100.0
07/21/2019 18:00 574.07 0.00 -- 78.4 100.0
07/21/2019 17:00 574.08 0.00 -- 80.3 100.0
07/21/2019 16:00 574.06 0.00 -- 77.2 100.0
07/21/2019 15:00 574.06 0.00 -- 79.4 100.0
07/21/2019 14:00 574.08 0.00 -- 84.9 100.0
07/21/2019 13:00 574.07 0.00 -- 85.7 100.0
07/21/2019 12:00 574.05 0.00 -- 87.8 100.0
07/21/2019 11:00 574.10 0.00 -- 88.7 100.0
07/21/2019 10:00 574.10 0.00 -- 87.5 100.0
07/21/2019 09:00 574.08 0.00 -- 87.1 100.0
07/21/2019 08:00 574.06 0.00 -- 86.7 100.0
07/21/2019 07:00 574.06 0.00 -- 85.2 100.0
07/21/2019 06:00 574.11 0.00 -- 83.7 100.0
07/21/2019 05:00 574.05 0.00 -- 82.1 100.0
07/21/2019 04:00 574.07 0.00 -- 81.1 100.0
07/21/2019 03:00 574.09 0.00 -- 79.5 100.0
07/21/2019 02:00 574.06 0.00 -- 79.2 100.0
07/21/2019 01:00 574.09 0.00 -- 77.7 100.0
07/21/2019 00:00 574.09 0.00 0.00 75.7 100.0
07/20/2019 23:00 574.09 0.00 -- 76.8 100.0
07/20/2019 22:00 574.07 0.00 -- 76.6 100.0
07/20/2019 21:00 574.07 0.00 -- 76.6 100.0
07/20/2019 20:00 574.07 0.00 -- 76.9 100.0
07/20/2019 19:00 574.08 0.00 -- 77.0 100.0
07/20/2019 18:00 574.08 0.00 -- 77.2 100.0
07/20/2019 17:00 574.08 0.00 -- 77.1 100.0
07/20/2019 16:00 574.09 0.00 -- 78.4 100.0
07/20/2019 15:00 574.07 0.00 -- 80.8 100.0
07/20/2019 14:00 574.07 0.00 -- 84.4 100.0
07/20/2019 13:00 574.08 0.00 -- 87.8 100.0
07/20/2019 12:00 574.08 0.00 -- 89.8 100.0
07/20/2019 11:00 574.07 0.00 -- 89.9 100.0
07/20/2019 10:00 574.10 0.00 -- 88.7 100.0
07/20/2019 09:00 574.09 0.00 -- 86.4 100.0
07/20/2019 08:00 574.10 0.00 -- 85.4 100.0
07/20/2019 07:00 574.08 0.00 -- 84.2 100.0
07/20/2019 06:00 574.09 0.00 -- 83.0 100.0
07/20/2019 05:00 574.09 0.00 -- 80.7 100.0
07/20/2019 04:00 574.10 0.00 -- 80.2 100.0
07/20/2019 03:00 574.09 0.00 -- 78.5 100.0
07/20/2019 02:00 574.08 0.00 -- 77.6 100.0
07/20/2019 01:00 574.09 0.00 -- 77.7 100.0
07/20/2019 00:00 574.09 0.00 0.00 77.8 100.0
07/19/2019 23:00 574.09 0.00 -- 74.5 100.0
07/19/2019 22:00 574.09 0.00 -- 74.4 100.0
07/19/2019 21:00 574.08 0.00 -- 73.8 100.0
07/19/2019 20:00 574.08 0.00 -- 75.1 100.0
07/19/2019 19:00 574.09 0.00 -- 76.6 100.0
07/19/2019 18:00 574.10 0.00 -- 76.9 100.0
07/19/2019 17:00 574.10 0.00 -- 77.4 100.0
07/19/2019 16:00 574.09 0.00 -- 78.4 100.0
07/19/2019 15:00 574.08 0.00 -- 80.6 100.0
07/19/2019 14:00 574.08 0.00 -- 85.3 100.0
07/19/2019 13:00 574.08 0.00 -- 87.5 100.0
07/19/2019 12:00 574.11 0.00 -- 87.1 100.0
07/19/2019 11:00 574.11 0.00 -- 84.4 100.0
07/19/2019 10:00 574.11 0.00 -- 85.8 100.0
07/19/2019 09:00 574.09 0.00 -- 84.2 100.0
07/19/2019 08:00 574.11 0.00 -- 82.1 100.0
07/19/2019 07:00 574.10 0.00 -- 79.5 100.0
07/19/2019 06:00 574.10 0.00 -- 76.1 100.0
07/19/2019 05:00 574.09 0.00 -- 72.9 100.0
07/19/2019 04:00 574.10 0.00 -- 69.0 100.0
07/19/2019 03:00 574.12 0.00 -- 64.5 100.0
07/19/2019 02:00 574.11 0.00 -- 62.2 100.0
07/19/2019 01:00 574.09 0.00 -- 61.5 100.0
07/19/2019 00:00 574.10 0.00 0.00 59.9 100.0
07/18/2019 23:00 574.09 0.00 -- 59.0 100.0
07/18/2019 22:00 574.09 0.00 -- 59.7 100.0
07/18/2019 21:00 574.11 0.00 -- 61.7 100.0
07/18/2019 20:00 574.11 0.00 -- 62.3 100.0
07/18/2019 19:00 574.10 0.00 -- 64.1 100.0
07/18/2019 18:00 574.11 0.00 -- 65.5 100.0
07/18/2019 17:00 574.10 0.00 -- 67.8 100.0
07/18/2019 16:00 574.10 0.00 -- 69.0 100.0
07/18/2019 15:00 574.10 0.00 -- 70.6 100.0
07/18/2019 14:00 574.09 0.00 -- 72.6 100.0
07/18/2019 13:00 574.11 0.00 -- 75.2 100.0
07/18/2019 12:00 574.11 0.00 -- 79.3 100.0
07/18/2019 11:00 574.11 0.00 -- 79.7 100.0
07/18/2019 10:00 574.12 0.00 -- 78.1 100.0
07/18/2019 09:00 574.11 0.00 -- 76.0 100.0
07/18/2019 08:00 574.11 0.00 -- 75.0 100.0
07/18/2019 07:00 574.12 0.00 -- 73.1 100.0
07/18/2019 06:00 574.10 0.00 -- 68.8 100.0
07/18/2019 05:00 574.10 0.00 -- 67.9 100.0
07/18/2019 04:00 574.10 0.00 -- 66.3 100.0
07/18/2019 03:00 574.13 0.00 -- 66.8 100.0
07/18/2019 02:00 574.12 0.00 -- 66.8 100.0
07/18/2019 01:00 574.11 0.00 -- 67.3 100.0
07/18/2019 00:00 574.13 0.00 0.00 68.5 100.0
07/17/2019 23:00 574.13 0.00 -- 70.2 100.0
07/17/2019 22:00 574.11 0.00 -- 70.3 100.0
07/17/2019 21:00 574.12 0.00 -- 70.5 100.0
07/17/2019 20:00 574.12 0.00 -- 70.4 100.0
07/17/2019 19:00 574.12 0.00 -- 71.2 100.0
07/17/2019 18:00 574.13 0.00 -- 72.3 100.0
07/17/2019 17:00 574.13 0.00 -- 73.6 100.0
07/17/2019 16:00 574.12 0.00 -- 74.4 100.0
07/17/2019 15:00 574.11 0.00 -- 76.1 100.0
07/17/2019 14:00 574.12 0.00 -- 77.4 100.0
07/17/2019 13:00 574.13 0.00 -- 77.3 100.0
07/17/2019 12:00 574.11 0.00 -- 79.5 100.0
07/17/2019 11:00 574.11 0.00 -- 81.4 100.0
07/17/2019 10:00 574.12 0.00 -- 81.6 100.0
07/17/2019 09:00 574.12 0.00 -- 78.8 100.0
07/17/2019 08:00 574.14 0.00 -- 77.5 100.0
07/17/2019 07:00 574.13 0.00 -- 76.8 100.0
07/17/2019 06:00 574.12 0.00 -- 75.2 100.0
07/17/2019 05:00 574.13 0.00 -- 73.8 100.0
07/17/2019 04:00 574.12 0.00 -- 72.7 100.0
07/17/2019 03:00 574.11 0.00 -- 71.7 100.0
07/17/2019 02:00 574.12 0.00 -- 69.1 100.0
07/17/2019 01:00 574.11 0.00 -- 68.4 100.0
07/17/2019 00:00 574.12 0.00 0.00 68.7 100.0
07/16/2019 23:00 574.10 0.00 -- 69.3 100.0
07/16/2019 22:00 574.13 0.00 -- 69.5 100.0
07/16/2019 21:00 574.13 0.00 -- 70.0 100.0
07/16/2019 20:00 574.13 0.00 -- 68.1 100.0
07/16/2019 19:00 574.11 0.00 -- 68.3 100.0
07/16/2019 18:00 574.13 0.00 -- 69.7 100.0
07/16/2019 17:00 574.12 0.00 -- 70.0 100.0
07/16/2019 16:00 574.12 0.00 -- 72.5 100.0
07/16/2019 15:00 574.13 0.00 -- 74.0 100.0
07/16/2019 14:00 574.10 0.00 -- 76.0 100.0
07/16/2019 13:00 574.13 0.00 -- 76.5 100.0
07/16/2019 12:00 574.14 0.00 -- 80.1 100.0
07/16/2019 11:00 574.13 0.00 -- 81.0 100.0
07/16/2019 10:00 574.13 0.00 -- 81.4 100.0
07/16/2019 09:00 574.13 0.00 -- 81.0 100.0
07/16/2019 08:00 574.13 0.00 -- 79.0 100.0
07/16/2019 07:00 574.12 0.00 -- 77.7 100.0
07/16/2019 06:00 574.14 0.00 -- 75.5 100.0
07/16/2019 05:00 574.13 0.00 -- 71.8 100.0
07/16/2019 04:00 574.14 0.00 -- 68.1 100.0
07/16/2019 03:00 574.13 0.00 -- 65.5 100.0
07/16/2019 02:00 574.14 0.00 -- 62.8 100.0
07/16/2019 01:00 574.13 0.00 -- 60.2 100.0
07/16/2019 00:00 574.13 0.00 0.00 60.8 100.0
07/15/2019 23:00 574.12 0.00 -- 61.2 100.0
07/15/2019 22:00 574.13 0.00 -- 59.6 100.0
07/15/2019 21:00 574.13 0.00 -- 60.4 100.0
07/15/2019 20:00 574.14 0.00 -- 60.7 100.0
07/15/2019 19:00 574.14 0.00 -- 62.1 100.0
07/15/2019 18:00 574.13 0.00 -- 64.1 100.0
07/15/2019 17:00 574.14 0.00 -- 66.9 100.0
07/15/2019 16:00 574.14 0.00 -- 69.3 100.0
07/15/2019 15:00 574.14 0.00 -- 75.5 100.0
07/15/2019 14:00 574.14 0.00 -- 78.0 100.0
07/15/2019 13:00 574.15 0.00 -- 78.7 100.0
07/15/2019 12:00 574.13 0.00 -- 79.2 100.0
07/15/2019 11:00 574.15 0.00 -- 78.8 100.0
07/15/2019 10:00 574.16 0.00 -- 77.8 100.0
07/15/2019 09:00 574.15 0.00 -- 76.8 100.0
07/15/2019 08:00 574.15 0.00 -- 75.4 100.0
07/15/2019 07:00 574.14 0.00 -- 72.9 100.0
07/15/2019 06:00 574.16 0.00 -- 71.2 100.0
07/15/2019 05:00 574.15 0.00 -- 69.3 100.0
07/15/2019 04:00 574.16 0.00 -- 67.8 100.0
07/15/2019 03:00 574.15 0.00 -- 64.8 100.0
07/15/2019 02:00 574.15 0.00 -- 64.3 100.0
07/15/2019 01:00 574.15 0.00 -- 65.4 100.0
07/15/2019 00:00 574.16 0.00 0.00 64.7 100.0
07/14/2019 23:00 574.16 0.00 -- 64.7 100.0
07/14/2019 22:00 574.15 0.00 -- 62.2 100.0
07/14/2019 21:00 574.15 0.00 -- 62.2 100.0
07/14/2019 20:00 574.15 0.00 -- 64.6 100.0
07/14/2019 19:00 574.16 0.00 -- 67.8 100.0
07/14/2019 18:00 574.17 0.00 -- 70.7 100.0
07/14/2019 17:00 574.17 0.00 -- 72.6 100.0
07/14/2019 16:00 574.17 0.00 -- 74.9 100.0
07/14/2019 15:00 574.17 0.00 -- 76.5 100.0
07/14/2019 14:00 574.18 0.00 -- 78.1 100.0
07/14/2019 13:00 574.19 0.00 -- 80.0 100.0
07/14/2019 12:00 574.18 0.00 -- 81.0 100.0
07/14/2019 11:00 574.17 0.00 -- 79.3 100.0
07/14/2019 10:00 574.15 0.00 -- 80.7 100.0
07/14/2019 09:00 574.18 0.00 -- 79.2 100.0
07/14/2019 08:00 574.16 0.00 -- 78.7 100.0
07/14/2019 07:00 574.21 0.00 -- 77.9 100.0
07/14/2019 06:00 574.16 0.00 -- 76.1 100.0
07/14/2019 05:00 574.18 0.00 -- 73.8 100.0
07/14/2019 04:00 574.19 0.00 -- 73.5 100.0
07/14/2019 03:00 574.18 0.00 -- 68.7 100.0
07/14/2019 02:00 574.15 0.00 -- 66.3 100.0
07/14/2019 01:00 574.16 0.00 -- 66.0 100.0
07/14/2019 00:00 574.18 0.00 0.00 65.2 100.0
07/13/2019 23:00 574.17 0.00 -- 66.7 100.0
07/13/2019 22:00 574.18 0.00 -- 67.2 100.0
07/13/2019 21:00 574.19 0.00 -- 67.8 100.0
07/13/2019 20:00 574.19 0.00 -- 68.0 100.0
07/13/2019 19:00 574.17 0.00 -- 68.0 100.0
07/13/2019 18:00 574.17 0.00 -- 69.2 100.0
07/13/2019 17:00 574.17 0.00 -- 70.1 100.0
07/13/2019 16:00 574.17 0.00 -- 71.0 100.0
07/13/2019 15:00 574.16 0.00 -- 73.9 100.0
07/13/2019 14:00 574.17 0.00 -- 76.8 100.0
07/13/2019 13:00 574.18 0.00 -- 81.5 100.0
07/13/2019 12:00 574.17 0.00 -- 82.1 100.0
07/13/2019 11:00 574.18 0.00 -- 81.3 100.0
07/13/2019 10:00 574.17 0.00 -- 80.3 100.0
07/13/2019 09:00 574.18 0.00 -- 78.3 100.0
07/13/2019 08:00 574.18 0.00 -- 76.4 100.0
07/13/2019 07:00 574.17 0.00 -- 75.2 100.0
07/13/2019 06:00 574.18 0.00 -- 73.1 100.0
07/13/2019 05:00 574.18 0.00 -- 71.2 100.0
07/13/2019 04:00 574.18 0.00 -- 68.9 100.0
07/13/2019 03:00 574.19 0.00 -- 64.9 100.0
07/13/2019 02:00 574.19 0.00 -- 63.5 100.0
07/13/2019 01:00 574.18 0.00 -- 64.3 100.0
07/13/2019 00:00 574.17 0.00 0.00 65.1 100.0
07/12/2019 23:00 574.19 0.00 -- 66.4 100.0
07/12/2019 22:00 574.18 0.00 -- 67.2 100.0
07/12/2019 21:00 574.18 0.00 -- 68.8 100.0
07/12/2019 20:00 574.17 0.00 -- 67.9 100.0
07/12/2019 19:00 574.18 0.00 -- 68.6 100.0
07/12/2019 18:00 574.18 0.00 -- 69.8 100.0
07/12/2019 17:00 574.18 0.00 -- 69.6 100.0
07/12/2019 16:00 574.19 0.00 -- 71.1 100.0
07/12/2019 15:00 574.22 0.00 -- 72.2 100.0
07/12/2019 14:00 574.17 0.00 -- 75.5 100.0
07/12/2019 13:00 574.16 0.00 -- 80.1 100.0
07/12/2019 12:00 574.17 0.01 -- 80.1 100.0
07/12/2019 11:00 574.17 0.00 -- 77.0 100.0
07/12/2019 10:00 574.18 0.00 -- 73.9 100.0
07/12/2019 09:00 574.17 0.00 -- 75.4 100.0
07/12/2019 08:00 574.16 0.00 -- 74.1 100.0
07/12/2019 07:00 574.17 0.00 -- 71.1 100.0
07/12/2019 06:00 574.16 0.00 -- 69.3 100.0
07/12/2019 05:00 574.16 0.00 -- 68.1 100.0
07/12/2019 04:00 574.17 0.00 -- 67.2 100.0
07/12/2019 03:00 574.17 0.00 -- 67.0 100.0
07/12/2019 02:00 574.16 0.01 -- 66.1 100.0
07/12/2019 01:00 574.15 0.00 -- 66.8 100.0
07/12/2019 00:00 574.16 0.00 0.02 66.7 100.0
07/11/2019 23:00 574.14 0.01 -- 66.3 100.0
07/11/2019 22:00 574.14 0.00 -- 65.9 100.0
07/11/2019 21:00 574.14 0.00 -- 65.8 100.0
07/11/2019 20:00 574.13 0.00 -- 66.3 100.0
07/11/2019 19:00 574.11 0.01 -- 66.3 100.0
07/11/2019 18:00 574.12 0.00 -- 66.7 100.0
07/11/2019 17:00 574.11 0.00 -- 67.4 100.0
07/11/2019 16:00 574.12 0.02 -- 67.6 100.0
07/11/2019 15:00 574.12 0.02 -- 68.7 100.0
07/11/2019 14:00 574.09 0.03 -- 70.0 100.0
07/11/2019 13:00 574.08 0.00 -- 71.3 100.0
07/11/2019 12:00 574.07 0.00 -- 72.6 100.0
07/11/2019 11:00 574.09 0.00 -- 77.3 100.0
07/11/2019 10:00 574.09 0.00 -- 78.4 100.0
07/11/2019 09:00 574.07 0.00 -- 78.8 100.0
07/11/2019 08:00 574.08 0.00 -- 79.1 100.0
07/11/2019 07:00 574.09 0.00 -- 76.6 100.0
07/11/2019 06:00 574.08 0.00 -- 74.2 100.0
07/11/2019 05:00 574.09 0.00 -- 69.7 100.0
07/11/2019 04:00 574.09 0.00 -- 65.9 100.0
07/11/2019 03:00 574.08 0.00 -- 62.9 100.0
07/11/2019 02:00 574.09 0.00 -- 60.6 100.0
07/11/2019 01:00 574.11 0.00 -- 59.8 100.0
07/11/2019 00:00 574.09 0.00 0.09 59.5 100.0
07/10/2019 23:00 574.08 0.00 -- 60.0 100.0
07/10/2019 22:00 574.09 0.00 -- 60.4 100.0
07/10/2019 21:00 574.09 0.00 -- 61.8 100.0
07/10/2019 20:00 574.11 0.00 -- 63.6 100.0
07/10/2019 19:00 574.09 0.00 -- 65.5 100.0
07/10/2019 18:00 574.09 0.00 -- 67.7 100.0
07/10/2019 17:00 574.09 0.00 -- 69.6 100.0
07/10/2019 16:00 574.09 0.00 -- 71.5 100.0
07/10/2019 15:00 574.09 0.00 -- 74.3 100.0
07/10/2019 14:00 574.08 0.00 -- 75.8 100.0
07/10/2019 13:00 574.10 0.00 -- 78.3 100.0
07/10/2019 12:00 574.10 0.00 -- 82.1 100.0
07/10/2019 11:00 574.09 0.00 -- 84.5 100.0
07/10/2019 10:00 574.09 0.00 -- 84.0 100.0
07/10/2019 09:00 574.09 0.00 -- 82.4 100.0
07/10/2019 08:00 574.10 0.00 -- 81.0 100.0
07/10/2019 07:00 574.09 0.00 -- 78.8 100.0
07/10/2019 06:00 574.10 0.00 -- 76.0 100.0
07/10/2019 05:00 574.11 0.00 -- 70.4 100.0
07/10/2019 04:00 574.10 0.00 -- 69.8 100.0
07/10/2019 03:00 574.10 0.00 -- 68.4 100.0
07/10/2019 02:00 574.10 0.00 -- 67.3 100.0
07/10/2019 01:00 574.10 0.00 -- 68.1 100.0
07/10/2019 00:00 574.10 0.00 0.00 65.8 100.0
07/09/2019 23:00 574.11 0.00 -- 68.3 100.0
07/09/2019 22:00 574.09 0.00 -- 64.8 100.0
07/09/2019 21:00 574.09 0.00 -- 63.0 100.0
07/09/2019 20:00 574.10 0.00 -- 63.3 100.0
07/09/2019 19:00 574.09 0.00 -- 64.9 100.0
07/09/2019 18:00 574.10 0.00 -- 66.7 100.0
07/09/2019 17:00 574.09 0.00 -- 68.8 100.0
07/09/2019 16:00 574.10 0.00 -- 71.3 100.0
07/09/2019 15:00 574.10 0.00 -- 79.7 100.0
07/09/2019 14:00 574.10 0.00 -- 81.0 100.0
07/09/2019 13:00 574.11 0.00 -- 82.6 100.0
07/09/2019 12:00 574.13 0.00 -- 83.5 100.0
07/09/2019 11:00 574.11 0.00 -- 83.7 100.0
07/09/2019 10:00 574.12 0.00 -- 82.2 100.0
07/09/2019 09:00 574.12 0.00 -- 80.3 100.0
07/09/2019 08:00 574.12 0.00 -- 79.9 100.0
07/09/2019 07:00 574.13 0.00 -- 78.7 100.0
07/09/2019 06:00 574.12 0.00 -- 75.3 100.0
07/09/2019 05:00 574.12 0.00 -- 72.1 100.0
07/09/2019 04:00 574.11 0.00 -- 68.7 100.0
07/09/2019 03:00 574.11 0.00 -- 66.6 100.0
07/09/2019 02:00 574.12 0.00 -- 63.0 100.0
07/09/2019 01:00 574.12 0.00 -- 59.3 100.0
07/09/2019 00:00 574.11 0.00 0.00 59.2 100.0
07/08/2019 23:00 574.13 0.00 -- 57.8 100.0
07/08/2019 22:00 574.11 0.00 -- 57.6 100.0
07/08/2019 21:00 574.11 0.00 -- 60.7 100.0
07/08/2019 20:00 574.12 0.00 -- 61.2 100.0
07/08/2019 19:00 574.12 0.00 -- 61.3 100.0
07/08/2019 18:00 574.13 0.00 -- 62.7 100.0
07/08/2019 17:00 574.12 0.00 -- 65.1 100.0
07/08/2019 16:00 574.12 0.00 -- 69.0 100.0
07/08/2019 15:00 574.13 0.00 -- 71.7 100.0
07/08/2019 14:00 574.12 0.00 -- 77.0 100.0
07/08/2019 13:00 574.12 0.00 -- 80.3 100.0
07/08/2019 12:00 574.13 0.00 -- 80.0 100.0
07/08/2019 11:00 574.14 0.00 -- 78.9 100.0
07/08/2019 10:00 574.13 0.00 -- 78.8 100.0
07/08/2019 09:00 574.13 0.00 -- 76.6 100.0
07/08/2019 08:00 574.13 0.00 -- 75.7 100.0
07/08/2019 07:00 574.13 0.00 -- 73.8 100.0
07/08/2019 06:00 574.13 0.00 -- 71.4 100.0
07/08/2019 05:00 574.13 0.00 -- 68.2 100.0
07/08/2019 04:00 574.13 0.00 -- 64.8 100.0
07/08/2019 03:00 574.14 0.00 -- 60.1 100.0
07/08/2019 02:00 574.14 0.00 -- 55.8 100.0
07/08/2019 01:00 574.14 0.00 -- 54.5 100.0
07/08/2019 00:00 574.14 0.00 0.00 55.2 100.0
07/07/2019 23:00 574.14 0.00 -- 56.4 100.0
07/07/2019 22:00 574.13 0.00 -- 58.2 100.0
07/07/2019 21:00 574.13 0.00 -- 59.1 100.0
07/07/2019 20:00 574.14 0.00 -- 59.6 100.0
07/07/2019 19:00 574.14 0.00 -- 60.0 100.0
07/07/2019 18:00 574.14 0.00 -- 61.3 100.0
07/07/2019 17:00 574.14 0.00 -- 64.7 100.0
07/07/2019 16:00 574.14 0.00 -- 68.3 100.0
07/07/2019 15:00 574.15 0.00 -- 70.4 100.0
07/07/2019 14:00 574.15 0.00 -- 75.0 100.0
07/07/2019 13:00 574.15 0.00 -- 78.1 100.0
07/07/2019 12:00 574.16 0.00 -- 78.2 100.0
07/07/2019 11:00 574.15 0.00 -- 77.6 100.0
07/07/2019 10:00 574.16 0.00 -- 76.5 100.0
07/07/2019 09:00 574.16 0.00 -- 75.1 100.0
07/07/2019 08:00 574.16 0.00 -- 72.9 100.0
07/07/2019 07:00 574.15 0.00 -- 71.1 100.0
07/07/2019 06:00 574.15 0.00 -- 69.5 100.0
07/07/2019 05:00 574.16 0.01 -- 66.4 100.0
07/07/2019 04:00 574.15 0.00 -- 65.0 100.0
07/07/2019 03:00 574.16 0.00 -- 62.0 100.0
07/07/2019 02:00 574.17 0.00 -- 59.9 100.0
07/07/2019 01:00 574.18 0.00 -- 59.8 100.0
07/07/2019 00:00 574.17 0.00 0.01 61.8 100.0
07/06/2019 23:00 574.17 0.00 -- 64.0 100.0
07/06/2019 22:00 574.18 0.00 -- 66.5 100.0
07/06/2019 21:00 574.17 0.00 -- 67.5 100.0
07/06/2019 20:00 574.17 0.00 -- 68.3 100.0
07/06/2019 19:00 574.17 0.00 -- 69.5 100.0
07/06/2019 18:00 574.16 0.00 -- 70.6 100.0
07/06/2019 17:00 574.17 0.00 -- 71.8 100.0
07/06/2019 16:00 574.17 0.00 -- 72.0 100.0
07/06/2019 15:00 574.19 0.00 -- 72.7 100.0
07/06/2019 14:00 574.19 0.00 -- 72.8 100.0
07/06/2019 13:00 574.23 0.00 -- 72.3 100.0
07/06/2019 12:00 574.14 0.00 -- 78.2 100.0
07/06/2019 11:00 574.11 0.00 -- 78.6 100.0
07/06/2019 10:00 574.15 0.00 -- 87.4 100.0
07/06/2019 09:00 574.16 0.00 -- 85.7 100.0
07/06/2019 08:00 574.17 0.00 -- 84.9 100.0
07/06/2019 07:00 574.18 0.00 -- 83.7 100.0
07/06/2019 06:00 574.17 0.00 -- 82.4 100.0
07/06/2019 05:00 574.17 0.00 -- 80.6 100.0
07/06/2019 04:00 574.18 0.00 -- 78.8 100.0
07/06/2019 03:00 574.18 0.00 -- 73.5 100.0
07/06/2019 02:00 574.17 0.00 -- 70.4 100.0
07/06/2019 01:00 574.18 0.00 -- 70.4 100.0
07/06/2019 00:00 574.18 0.00 0.00 70.4 100.0
07/05/2019 23:00 574.18 0.00 -- 70.7 100.0
07/05/2019 22:00 574.17 0.00 -- 73.1 100.0
07/05/2019 21:00 574.17 0.00 -- 75.0 100.0
07/05/2019 20:00 574.17 0.00 -- 72.6 100.0
07/05/2019 19:00 574.18 0.00 -- 75.6 100.0
07/05/2019 18:00 574.19 0.00 -- 76.3 100.0
07/05/2019 17:00 574.18 0.00 -- 77.5 100.0
07/05/2019 16:00 574.17 0.00 -- 78.2 100.0
07/05/2019 15:00 574.17 0.00 -- 81.1 100.0
07/05/2019 14:00 574.17 0.00 -- 83.3 100.0
07/05/2019 13:00 574.20 0.00 -- 85.6 100.0
07/05/2019 12:00 574.20 0.00 -- 87.6 100.0
07/05/2019 11:00 574.21 0.00 -- 89.2 100.0
07/05/2019 10:00 574.19 0.00 -- 89.1 100.0
07/05/2019 09:00 574.22 0.00 -- 86.5 100.0
07/05/2019 08:00 574.23 0.00 -- 87.1 100.0
07/05/2019 07:00 574.22 0.00 -- 85.9 100.0
07/05/2019 06:00 574.22 0.01 -- 82.9 100.0
07/05/2019 05:00 574.22 0.00 -- 78.2 100.0
07/05/2019 04:00 574.22 0.00 -- 74.1 100.0
07/05/2019 03:00 574.23 0.00 -- 70.8 100.0
07/05/2019 02:00 574.22 0.00 -- 65.6 100.0
07/05/2019 01:00 574.22 0.00 -- 64.7 100.0
07/05/2019 00:00 574.22 0.00 0.01 63.6 100.0
07/04/2019 23:00 574.21 0.00 -- 63.4 100.0
07/04/2019 22:00 574.22 0.00 -- 64.2 100.0
07/04/2019 21:00 574.22 0.00 -- 65.1 100.0
07/04/2019 20:00 574.22 0.00 -- 67.4 100.0
07/04/2019 19:00 574.22 0.00 -- 68.5 100.0
07/04/2019 18:00 574.22 0.00 -- 70.1 100.0
07/04/2019 17:00 574.22 0.00 -- 73.3 100.0
07/04/2019 16:00 574.23 0.00 -- 74.6 100.0
07/04/2019 15:00 574.23 0.00 -- 75.7 100.0
07/04/2019 14:00 574.22 0.00 -- 78.3 100.0
07/04/2019 13:00 574.22 0.00 -- 80.4 100.0
07/04/2019 12:00 574.23 0.00 -- 83.3 100.0
07/04/2019 11:00 574.23 0.00 -- 86.3 100.0
07/04/2019 10:00 574.24 0.00 -- 85.9 100.0
07/04/2019 09:00 574.24 0.00 -- 85.0 100.0
07/04/2019 08:00 574.23 0.00 -- 83.9 100.0
07/04/2019 07:00 574.24 0.00 -- 81.9 100.0
07/04/2019 06:00 574.24 0.00 -- 79.3 100.0
07/04/2019 05:00 574.24 0.00 -- 76.2 100.0
07/04/2019 04:00 574.25 0.00 -- 72.0 100.0
07/04/2019 03:00 574.24 0.00 -- 68.2 100.0
07/04/2019 02:00 574.24 0.00 -- 62.0 100.0
07/04/2019 01:00 574.24 0.00 -- 62.1 100.0
07/04/2019 00:00 574.24 0.00 0.00 63.2 100.0
07/03/2019 23:00 574.25 0.00 -- 63.5 100.0
07/03/2019 22:00 574.24 0.00 -- 65.1 100.0
07/03/2019 21:00 574.24 0.00 -- 66.5 100.0
07/03/2019 20:00 574.24 0.00 -- 66.9 100.0
07/03/2019 19:00 574.24 0.00 -- 67.8 100.0
07/03/2019 18:00 574.25 0.00 -- 68.8 100.0
07/03/2019 17:00 574.24 0.00 -- 70.9 100.0
07/03/2019 16:00 574.25 0.00 -- 73.1 100.0
07/03/2019 15:00 574.25 0.00 -- 75.7 100.0
07/03/2019 14:00 574.24 0.00 -- 79.1 100.0
07/03/2019 13:00 574.25 0.00 -- 84.4 100.0
07/03/2019 12:00 574.25 0.00 -- 86.5 100.0
07/03/2019 11:00 574.26 0.00 -- 84.2 100.0
07/03/2019 10:00 574.26 0.00 -- 83.9 100.0
07/03/2019 09:00 574.26 0.01 -- 82.5 100.0
07/03/2019 08:00 574.26 0.00 -- 81.6 100.0
07/03/2019 07:00 574.27 0.00 -- 80.7 100.0
07/03/2019 06:00 574.27 0.00 -- 78.0 100.0
07/03/2019 05:00 574.27 0.00 -- 74.9 100.0
07/03/2019 04:00 574.27 0.00 -- 71.9 100.0
07/03/2019 03:00 574.27 0.00 -- 69.0 100.0
07/03/2019 02:00 574.26 0.00 -- 67.7 100.0
07/03/2019 01:00 574.27 0.00 -- 67.1 100.0
07/03/2019 00:00 574.26 0.00 0.01 66.9 100.0
07/02/2019 23:00 574.27 0.00 -- 64.3 100.0
07/02/2019 22:00 574.27 0.00 -- 62.3 100.0
07/02/2019 21:00 574.26 0.00 -- 63.1 100.0
07/02/2019 20:00 574.27 0.00 -- 63.5 100.0
07/02/2019 19:00 574.26 0.00 -- 64.8 100.0
07/02/2019 18:00 574.26 0.00 -- 65.9 100.0
07/02/2019 17:00 574.26 0.00 -- 68.4 100.0
07/02/2019 16:00 574.27 0.00 -- 72.4 100.0
07/02/2019 15:00 574.27 0.00 -- 75.5 100.0
07/02/2019 14:00 574.27 0.00 -- 81.6 100.0
07/02/2019 13:00 574.27 0.00 -- 83.1 100.0
07/02/2019 12:00 574.27 0.00 -- 83.6 100.0
07/02/2019 11:00 574.28 0.00 -- 82.7 100.0
07/02/2019 10:00 574.28 0.00 -- 82.2 100.0
07/02/2019 09:00 574.29 0.00 -- 79.7 100.0
07/02/2019 08:00 574.28 0.00 -- 77.3 100.0
07/02/2019 07:00 574.29 0.00 -- 76.3 100.0
07/02/2019 06:00 574.29 0.00 -- 72.9 100.0
07/02/2019 05:00 574.28 0.01 -- 69.7 100.0
07/02/2019 04:00 574.28 0.00 -- 67.2 100.0
07/02/2019 03:00 574.28 0.00 -- 64.3 100.0
07/02/2019 02:00 574.29 0.00 -- 64.6 100.0
07/02/2019 01:00 574.28 0.00 -- 65.0 100.0
07/02/2019 00:00 574.29 0.00 0.01 65.3 100.0
07/01/2019 23:00 574.29 0.00 -- 65.4 100.0
07/01/2019 22:00 574.27 0.00 -- 66.0 100.0
07/01/2019 21:00 574.29 0.00 -- 66.2 100.0
07/01/2019 20:00 574.28 0.00 -- 65.4 100.0
07/01/2019 19:00 574.30 0.00 -- 65.3 100.0
07/01/2019 18:00 574.29 0.00 -- 66.0 100.0
07/01/2019 17:00 574.29 0.00 -- 67.8 100.0
07/01/2019 16:00 574.30 0.00 -- 70.0 100.0
07/01/2019 15:00 574.29 0.00 -- 70.7 100.0
07/01/2019 14:00 574.30 0.00 -- 73.2 100.0
07/01/2019 13:00 574.29 0.00 -- 78.4 100.0
07/01/2019 12:00 574.31 0.00 -- 80.0 100.0
07/01/2019 11:00 574.31 0.00 -- 77.6 100.0
07/01/2019 10:00 574.30 0.00 -- 78.2 100.0
07/01/2019 09:00 574.30 0.00 -- 77.0 100.0
07/01/2019 08:00 574.30 0.00 -- 75.8 100.0
07/01/2019 07:00 574.31 0.00 -- 74.3 100.0
07/01/2019 06:00 574.30 0.00 -- 71.2 100.0
07/01/2019 05:00 574.31 0.00 -- 68.7 100.0
07/01/2019 04:00 574.31 0.01 -- 65.9 100.0
07/01/2019 03:00 574.30 0.00 -- 62.7 100.0
07/01/2019 02:00 574.31 0.00 -- 58.2 100.0
07/01/2019 01:00 574.30 0.00 -- 56.5 100.0
07/01/2019 00:00 574.31 0.00 0.01 57.3 100.0
06/30/2019 23:00 574.31 0.00 -- 57.4 100.0
06/30/2019 22:00 574.31 0.00 -- 58.7 100.0
06/30/2019 21:00 574.32 0.00 -- 58.3 100.0
06/30/2019 20:00 574.31 0.00 -- 60.4 100.0
06/30/2019 19:00 574.33 0.00 -- 61.0 100.0
06/30/2019 18:00 574.30 0.00 -- 59.5 100.0
06/30/2019 17:00 574.32 0.00 -- 59.8 100.0
06/30/2019 16:00 574.31 0.00 -- 62.6 100.0
06/30/2019 15:00 574.33 0.00 -- 62.4 100.0
06/30/2019 14:00 574.32 0.00 -- 62.8 100.0
06/30/2019 13:00 574.31 0.00 -- 61.2 100.0
06/30/2019 12:00 574.31 0.00 -- 62.3 100.0
06/30/2019 11:00 574.32 0.00 -- 63.6 100.0
06/30/2019 10:00 574.30 0.00 -- 62.0 100.0
06/30/2019 09:00 574.29 0.01 -- 74.0 100.0
06/30/2019 08:00 574.31 0.00 -- 71.4 100.0
06/30/2019 07:00 574.32 0.00 -- 70.2 100.0
06/30/2019 06:00 574.33 0.00 -- 69.5 100.0
06/30/2019 05:00 574.30 0.00 -- 68.0 100.0
06/30/2019 04:00 574.31 0.00 -- 66.5 100.0
06/30/2019 03:00 574.32 0.00 -- 64.6 100.0
06/30/2019 02:00 574.31 0.00 -- 63.0 100.0
06/30/2019 01:00 574.32 0.00 -- 63.5 100.0
06/30/2019 00:00 574.31 0.00 0.01 63.2 100.0
06/29/2019 23:00 574.34 0.00 -- 63.5 100.0
06/29/2019 22:00 574.33 0.00 -- 63.7 100.0
06/29/2019 21:00 574.36 0.00 -- 63.9 100.0
06/29/2019 20:00 574.26 0.00 -- 63.5 100.0
06/29/2019 19:00 574.29 0.00 -- 67.3 100.0
06/29/2019 18:00 574.30 0.00 -- 67.9 100.0
06/29/2019 17:00 574.34 0.00 -- 69.1 100.0
06/29/2019 16:00 574.32 0.00 -- 69.8 100.0
06/29/2019 15:00 574.31 0.00 -- 72.9 100.0
06/29/2019 14:00 574.32 0.00 -- 77.0 100.0
06/29/2019 13:00 574.32 0.00 -- 78.2 100.0
06/29/2019 12:00 574.32 0.00 -- 78.0 100.0
06/29/2019 11:00 574.32 0.00 -- 76.3 100.0
06/29/2019 10:00 574.31 0.01 -- 76.9 100.0
06/29/2019 09:00 574.34 0.00 -- 75.0 100.0
06/29/2019 08:00 574.34 0.00 -- 73.4 100.0
06/29/2019 07:00 574.34 0.00 -- 71.6 100.0
06/29/2019 06:00 574.34 0.00 -- 69.7 100.0
06/29/2019 05:00 574.29 0.00 -- 68.9 100.0
06/29/2019 04:00 574.33 0.00 -- 68.1 100.0
06/29/2019 03:00 574.35 0.00 -- 66.5 100.0
06/29/2019 02:00 574.33 0.00 -- 65.1 100.0
06/29/2019 01:00 574.34 0.00 -- 66.1 100.0
06/29/2019 00:00 574.32 0.00 0.01 64.8 100.0
06/28/2019 23:00 574.34 0.00 -- 65.0 100.0
06/28/2019 22:00 574.30 0.00 -- 66.2 100.0
06/28/2019 21:00 574.33 0.00 -- 66.9 100.0
06/28/2019 20:00 574.32 0.00 -- 67.0 100.0
06/28/2019 19:00 574.32 0.00 -- 67.5 100.0
06/28/2019 18:00 574.33 0.00 -- 67.4 100.0
06/28/2019 17:00 574.33 0.01 -- 68.6 100.0
06/28/2019 16:00 574.33 0.00 -- 71.7 100.0
06/28/2019 15:00 574.33 0.00 -- 75.1 100.0
06/28/2019 14:00 574.33 0.00 -- 79.7 100.0
06/28/2019 13:00 574.33 0.00 -- 84.4 100.0
06/28/2019 12:00 574.33 0.00 -- 85.3 100.0
06/28/2019 11:00 574.35 0.00 -- 84.2 100.0
06/28/2019 10:00 574.34 0.00 -- 83.7 100.0
06/28/2019 09:00 574.34 0.00 -- 81.6 100.0
06/28/2019 08:00 574.33 0.00 -- 80.0 100.0
06/28/2019 07:00 574.35 0.00 -- 78.1 100.0
06/28/2019 06:00 574.33 0.00 -- 76.0 100.0
06/28/2019 05:00 574.35 0.00 -- 70.0 100.0
06/28/2019 04:00 574.35 0.00 -- 69.1 100.0
06/28/2019 03:00 574.34 0.00 -- 66.8 100.0
06/28/2019 02:00 574.34 0.00 -- 62.1 100.0
06/28/2019 01:00 574.35 0.00 -- 60.4 100.0
06/28/2019 00:00 574.34 0.00 0.01 61.3 100.0
06/27/2019 23:00 574.32 0.00 -- 61.8 100.0
06/27/2019 22:00 574.35 0.00 -- 63.6 100.0
06/27/2019 21:00 574.32 0.01 -- 63.5 100.0
06/27/2019 20:00 574.36 0.00 -- 63.5 100.0
06/27/2019 19:00 574.36 0.00 -- 64.8 100.0
06/27/2019 18:00 574.36 0.00 -- 67.1 93.0
06/27/2019 17:00 574.35 0.00 -- 68.2 66.0
06/27/2019 16:00 574.35 0.00 -- 70.1 46.0
06/27/2019 15:00 574.35 0.00 -- 72.9 37.0
06/27/2019 14:00 574.35 0.00 -- 75.3 33.0
06/27/2019 13:00 574.36 0.00 -- 77.1 30.0
06/27/2019 12:00 574.36 0.00 -- 80.3 28.0
06/27/2019 11:00 574.35 0.00 -- 79.2 25.0
06/27/2019 10:00 574.35 0.00 -- 77.8 31.0
06/27/2019 09:00 574.36 0.01 -- 76.9 38.0
06/27/2019 08:00 574.36 0.00 -- 72.8 100.0
06/27/2019 07:00 574.37 0.00 -- 68.6 100.0
06/27/2019 06:00 574.36 0.00 -- 66.9 100.0
06/27/2019 05:00 574.35 0.00 -- 64.5 100.0
06/27/2019 04:00 574.36 0.00 -- 63.6 100.0
06/27/2019 03:00 574.37 0.00 -- 63.3 100.0
06/27/2019 02:00 574.36 0.00 -- 62.4 100.0
06/27/2019 01:00 574.36 0.00 -- 62.0 100.0
06/27/2019 00:00 574.36 0.00 0.02 61.0 100.0
06/26/2019 23:00 574.35 0.00 -- 59.9 100.0
06/26/2019 22:00 574.36 0.00 -- 60.8 100.0
06/26/2019 21:00 574.40 0.00 -- 61.8 100.0
06/26/2019 20:00 574.35 0.00 -- 62.1 100.0
06/26/2019 19:00 574.34 0.01 -- 62.0 100.0
06/26/2019 18:00 574.34 0.00 -- 62.3 100.0
06/26/2019 17:00 574.34 0.00 -- 63.4 100.0
06/26/2019 16:00 574.34 0.00 -- 65.8 93.0
06/26/2019 15:00 574.34 0.00 -- 69.1 54.0
06/26/2019 14:00 574.34 0.00 -- 71.5 40.0
06/26/2019 13:00 574.34 0.00 -- 75.1 33.0
06/26/2019 12:00 574.34 0.00 -- 78.0 30.0
06/26/2019 11:00 574.34 0.00 -- 77.9 36.0
06/26/2019 10:00 574.35 0.01 -- 78.0 31.0
06/26/2019 09:00 574.35 0.00 -- 76.4 46.0
06/26/2019 08:00 574.35 0.00 -- 71.6 100.0
06/26/2019 07:00 574.35 0.00 -- 69.2 100.0
06/26/2019 06:00 574.35 0.00 -- 65.8 100.0
06/26/2019 05:00 574.35 0.00 -- 63.9 100.0
06/26/2019 04:00 574.36 0.01 -- 62.6 100.0
06/26/2019 03:00 574.36 0.00 -- 62.0 100.0
06/26/2019 02:00 574.36 0.00 -- 61.5 100.0
06/26/2019 01:00 574.36 0.00 -- 61.5 100.0
06/26/2019 00:00 574.36 0.01 0.03 61.4 100.0
06/25/2019 23:00 574.35 0.00 -- 61.4 100.0
06/25/2019 22:00 574.36 0.00 -- 61.5 100.0
06/25/2019 21:00 574.34 0.01 -- 61.6 100.0
06/25/2019 20:00 574.34 0.01 -- 61.2 100.0
06/25/2019 19:00 574.35 0.00 -- 61.1 100.0
06/25/2019 18:00 574.35 0.02 -- 61.4 100.0
06/25/2019 17:00 574.34 0.02 -- 61.4 100.0
06/25/2019 16:00 574.36 0.02 -- 63.4 100.0
06/25/2019 15:00 574.34 0.04 -- 63.1 100.0
06/25/2019 14:00 574.34 0.04 -- 62.6 100.0
06/25/2019 13:00 574.31 0.05 -- 62.5 100.0
06/25/2019 12:00 574.32 0.06 -- 63.0 100.0
06/25/2019 11:00 574.33 0.02 -- 63.7 100.0
06/25/2019 10:00 574.31 0.02 -- 64.6 100.0
06/25/2019 09:00 574.30 0.00 -- 64.9 100.0
06/25/2019 08:00 574.31 0.00 -- 65.4 100.0
06/25/2019 07:00 574.32 0.00 -- 66.1 100.0
06/25/2019 06:00 574.31 0.00 -- 65.4 100.0
06/25/2019 05:00 574.32 0.00 -- 61.9 100.0
06/25/2019 04:00 574.32 0.00 -- 60.5 100.0
06/25/2019 03:00 574.33 0.00 -- 57.7 100.0
06/25/2019 02:00 574.34 0.00 -- 53.8 100.0
06/25/2019 01:00 574.33 0.00 -- 51.7 100.0
06/25/2019 00:00 574.32 0.00 0.32 52.1 100.0
06/24/2019 23:00 574.31 0.00 -- 53.0 100.0
06/24/2019 22:00 574.32 0.00 -- 54.5 100.0
06/24/2019 21:00 574.32 0.00 -- 56.2 100.0
06/24/2019 20:00 574.33 0.00 -- 56.9 100.0
06/24/2019 19:00 574.33 0.00 -- 57.6 100.0
06/24/2019 18:00 574.33 0.00 -- 59.6 100.0
06/24/2019 17:00 574.33 0.00 -- 62.9 100.0
06/24/2019 16:00 574.34 0.00 -- 66.2 100.0
06/24/2019 15:00 574.32 0.00 -- 69.7 100.0
06/24/2019 14:00 574.33 0.00 -- 74.6 100.0
06/24/2019 13:00 574.33 0.00 -- 79.0 100.0
06/24/2019 12:00 574.32 0.00 -- 79.4 100.0
06/24/2019 11:00 574.33 0.00 -- 79.4 100.0
06/24/2019 10:00 574.33 0.00 -- 78.1 100.0
06/24/2019 09:00 574.34 0.00 -- 76.3 100.0
06/24/2019 08:00 574.36 0.00 -- 74.7 100.0
06/24/2019 07:00 574.36 0.00 -- 73.5 100.0
06/24/2019 06:00 574.35 0.00 -- 72.6 100.0
06/24/2019 05:00 574.35 0.00 -- 70.1 100.0
06/24/2019 04:00 574.34 0.00 -- 66.4 100.0
06/24/2019 03:00 574.35 0.00 -- 62.2 100.0
06/24/2019 02:00 574.34 0.00 -- 59.4 100.0
06/24/2019 01:00 574.35 0.00 -- 59.7 100.0
06/24/2019 00:00 574.35 0.00 0.00 61.4 100.0
06/23/2019 23:00 574.36 0.00 -- 60.8 100.0
06/23/2019 22:00 574.36 0.00 -- 60.9 100.0
06/23/2019 21:00 574.35 0.00 -- 61.9 100.0
06/23/2019 20:00 574.35 0.00 -- 64.3 100.0
06/23/2019 19:00 574.35 0.00 -- 68.2 100.0
06/23/2019 18:00 574.35 0.00 -- 69.1 100.0
06/23/2019 17:00 574.35 0.00 -- 66.3 100.0
06/23/2019 16:00 574.36 0.00 -- 70.4 100.0
06/23/2019 15:00 574.37 0.00 -- 76.6 100.0
06/23/2019 14:00 574.36 0.00 -- 77.9 100.0
06/23/2019 13:00 574.36 0.00 -- 78.7 100.0
06/23/2019 12:00 574.36 0.00 -- 79.1 100.0
06/23/2019 11:00 574.31 0.00 -- 79.0 100.0
06/23/2019 10:00 574.42 0.00 -- 77.3 100.0
06/23/2019 09:00 574.36 0.00 -- 76.7 100.0
06/23/2019 08:00 574.38 0.00 -- 75.1 100.0
06/23/2019 07:00 574.36 0.00 -- 73.2 100.0
06/23/2019 06:00 574.38 0.00 -- 71.4 100.0
06/23/2019 05:00 574.38 0.00 -- 67.9 100.0
06/23/2019 04:00 574.38 0.00 -- 66.0 100.0
06/23/2019 03:00 574.39 0.00 -- 63.4 100.0
06/23/2019 02:00 574.40 0.00 -- 61.6 100.0
06/23/2019 01:00 574.39 0.00 -- 60.6 100.0
06/23/2019 00:00 574.39 0.00 0.00 60.6 100.0
06/22/2019 23:00 574.38 0.00 -- 60.7 100.0
06/22/2019 22:00 574.38 0.00 -- 59.9 100.0
06/22/2019 21:00 574.38 0.00 -- 61.7 100.0
06/22/2019 20:00 574.40 0.00 -- 62.6 100.0
06/22/2019 19:00 574.40 0.00 -- 63.4 100.0
06/22/2019 18:00 574.40 0.00 -- 63.2 100.0
06/22/2019 17:00 574.39 0.00 -- 61.2 100.0
06/22/2019 16:00 574.39 0.00 -- 63.4 100.0
06/22/2019 15:00 574.36 0.00 -- 68.1 100.0
06/22/2019 14:00 574.41 0.00 -- 72.8 100.0
06/22/2019 13:00 574.40 0.00 -- 73.7 100.0
06/22/2019 12:00 574.37 0.00 -- 73.5 100.0
06/22/2019 11:00 574.36 0.00 -- 75.0 100.0
06/22/2019 10:00 574.41 0.00 -- 74.1 100.0
06/22/2019 09:00 574.38 0.00 -- 73.1 100.0
06/22/2019 08:00 574.40 0.00 -- 71.2 100.0
06/22/2019 07:00 574.42 0.00 -- 72.5 100.0
06/22/2019 06:00 574.39 0.00 -- 69.5 100.0
06/22/2019 05:00 574.41 0.00 -- 65.9 100.0
06/22/2019 04:00 574.42 0.00 -- 63.3 100.0
06/22/2019 03:00 574.42 0.00 -- 61.7 100.0
06/22/2019 02:00 574.41 0.00 -- 59.6 100.0
06/22/2019 01:00 574.41 0.00 -- 59.3 100.0
06/22/2019 00:00 574.41 0.00 0.00 60.8 100.0
06/21/2019 23:00 574.41 0.00 -- 60.4 100.0
06/21/2019 22:00 574.42 0.00 -- 60.6 100.0
06/21/2019 21:00 574.41 0.00 -- 60.6 100.0
06/21/2019 20:00 574.42 0.00 -- 61.2 100.0
06/21/2019 19:00 574.42 0.00 -- 62.3 100.0
06/21/2019 18:00 574.42 0.00 -- 64.7 100.0
06/21/2019 17:00 574.42 0.00 -- 65.1 100.0
06/21/2019 16:00 574.42 0.00 -- 66.4 100.0
06/21/2019 15:00 574.41 0.00 -- 69.7 100.0
06/21/2019 14:00 574.41 0.00 -- 70.0 100.0
06/21/2019 13:00 574.42 0.00 -- 67.6 95.0
06/21/2019 12:00 574.43 0.00 -- 66.9 85.0
06/21/2019 11:00 574.44 0.00 -- 67.9 78.0
06/21/2019 10:00 574.42 0.00 -- 67.4 65.0
06/21/2019 09:00 574.44 0.00 -- 67.0 59.0
06/21/2019 08:00 574.42 0.00 -- 66.7 67.0
06/21/2019 07:00 574.43 0.00 -- 64.6 95.0
06/21/2019 06:00 574.43 0.00 -- 63.2 91.0
06/21/2019 05:00 574.42 0.00 -- 61.4 100.0
06/21/2019 04:00 574.42 0.01 -- 59.5 100.0
06/21/2019 03:00 574.42 0.00 -- 58.4 100.0
06/21/2019 02:00 574.42 0.00 -- 57.9 100.0
06/21/2019 01:00 574.42 0.00 -- 57.6 100.0
06/21/2019 00:00 574.42 0.01 0.01 58.0 100.0
06/20/2019 23:00 574.41 0.04 -- 58.0 100.0
06/20/2019 22:00 574.42 0.10 -- 58.1 100.0
06/20/2019 21:00 574.44 0.11 -- 58.3 100.0
06/20/2019 20:00 574.39 0.01 -- 58.0 100.0
06/20/2019 19:00 574.41 0.01 -- 58.0 100.0
06/20/2019 18:00 -- -- -- 57.9 100.0
06/20/2019 17:00 -- -- -- 57.8 100.0
06/20/2019 16:00 -- -- -- 57.8 100.0
06/20/2019 15:00 -- -- -- 58.3 100.0
06/20/2019 14:00 -- -- -- 59.2 100.0
06/20/2019 13:00 -- -- -- 59.5 100.0
06/20/2019 12:00 -- -- -- 60.5 100.0
06/20/2019 11:00 -- -- -- 60.8 100.0
06/20/2019 10:00 -- -- -- 60.6 100.0
06/20/2019 09:00 -- -- -- 60.5 100.0
06/20/2019 08:00 -- -- -- 62.4 100.0
06/20/2019 07:00 -- -- -- 63.0 100.0
06/20/2019 06:00 -- -- -- 63.4 100.0
06/20/2019 05:00 -- -- -- 63.7 100.0
06/20/2019 04:00 -- -- -- 62.8 100.0
06/20/2019 03:00 -- -- -- 61.4 100.0
06/20/2019 02:00 -- -- -- 60.8 100.0
06/20/2019 01:00 -- -- -- 60.8 100.0
06/20/2019 00:00 -- -- 1.07 61.2 100.0